Wetterdaten: Donnerstag, 22.10.2020
Datum Zeit Temp. Aussen Temp. o. S. Temp +5cm Feuchte Auss Luftdruck Regen Sonnenschein Regendauer Solar Windben Empfang
22.10.2020 00:00 18,1 C 17,2 C 15,6 C 81 % 1007,7 hPa 0,0 l/m 0 min 0 min 0 W/m 19,3 km/h (3 Bft) 97,87 %
22.10.2020 00:02 18,2 C 17,2 C 15,6 C 81 % 1007,8 hPa 0,0 l/m 0 min 0 min 0 W/m 16,1 km/h (3 Bft) 94,87 %
22.10.2020 00:04 18,2 C 17,2 C 15,6 C 81 % 1007,8 hPa 0,0 l/m 0 min 0 min 0 W/m 29,0 km/h (5 Bft) 97,87 %
22.10.2020 00:08 18,2 C 17,8 C 16,1 C 81 % 1007,9 hPa 0,0 l/m 0 min 0 min 0 W/m 19,3 km/h (3 Bft) 98,94 %
22.10.2020 00:10 18,2 C 17,8 C 16,1 C 81 % 1007,9 hPa 0,0 l/m 0 min 0 min 0 W/m 32,2 km/h (5 Bft) 97,87 %
22.10.2020 00:12 18,3 C 17,8 C 16,1 C 81 % 1007,9 hPa 0,0 l/m 0 min 0 min 0 W/m 29,0 km/h (5 Bft) 95,74 %
22.10.2020 00:14 18,3 C 17,8 C 16,1 C 80 % 1008,0 hPa 0,0 l/m 0 min 0 min 0 W/m 29,0 km/h (5 Bft) 95,65 %
22.10.2020 00:16 18,3 C 17,2 C 16,1 C 80 % 1008,0 hPa 0,0 l/m 0 min 0 min 0 W/m 19,3 km/h (3 Bft) 97,87 %
22.10.2020 00:18 18,3 C 17,2 C 15,6 C 80 % 1008,1 hPa 0,0 l/m 0 min 0 min 0 W/m 25,7 km/h (4 Bft) 97,96 %
22.10.2020 00:20 18,3 C 17,2 C 15,6 C 80 % 1008,2 hPa 0,0 l/m 0 min 0 min 0 W/m 16,1 km/h (3 Bft) 95,74 %
22.10.2020 00:22 18,3 C 17,2 C 15,6 C 80 % 1008,2 hPa 0,0 l/m 0 min 0 min 0 W/m 19,3 km/h (3 Bft) 97,87 %
22.10.2020 00:24 18,3 C 17,2 C 15,6 C 80 % 1008,4 hPa 0,0 l/m 0 min 0 min 0 W/m 19,3 km/h (3 Bft) 97,87 %
22.10.2020 00:26 18,3 C 17,2 C 15,6 C 80 % 1008,3 hPa 0,0 l/m 0 min 0 min 0 W/m 12,9 km/h (3 Bft) 97,83 %
22.10.2020 00:28 18,3 C 17,2 C 15,6 C 80 % 1008,3 hPa 0,0 l/m 0 min 0 min 0 W/m 19,3 km/h (3 Bft) 95,74 %
22.10.2020 00:30 18,2 C 17,2 C 15,6 C 80 % 1008,3 hPa 0,0 l/m 0 min 0 min 0 W/m 12,9 km/h (3 Bft) 93,62 %
22.10.2020 00:32 18,2 C 17,2 C 15,6 C 80 % 1008,3 hPa 0,0 l/m 0 min 0 min 0 W/m 22,5 km/h (4 Bft) 89,36 %
22.10.2020 00:34 18,2 C 17,2 C 15,6 C 80 % 1008,4 hPa 0,0 l/m 0 min 0 min 0 W/m 9,7 km/h (2 Bft) 93,62 %
22.10.2020 00:36 18,1 C 17,2 C 15,6 C 80 % 1008,5 hPa 0,0 l/m 0 min 0 min 0 W/m 0,0 km/h (0 Bft) 95,74 %
22.10.2020 00:38 18,1 C 17,2 C 15,6 C 81 % 1008,5 hPa 0,0 l/m 0 min 0 min 0 W/m 0,0 km/h (0 Bft) 91,30 %
22.10.2020 00:40 18,1 C 17,2 C 15,6 C 81 % 1008,5 hPa 0,0 l/m 0 min 0 min 0 W/m 3,2 km/h (1 Bft) 95,74 %
22.10.2020 00:42 18,1 C 17,2 C 15,6 C 81 % 1008,6 hPa 0,0 l/m 0 min 0 min 0 W/m 6,4 km/h (2 Bft) 93,62 %
22.10.2020 00:44 18,1 C 16,7 C 15,6 C 81 % 1008,5 hPa 0,0 l/m 0 min 0 min 0 W/m 3,2 km/h (1 Bft) 93,62 %
22.10.2020 00:46 18,0 C 17,2 C 15,6 C 81 % 1008,6 hPa 0,0 l/m 0 min 0 min 0 W/m 16,1 km/h (3 Bft) 95,74 %
22.10.2020 00:48 18,0 C 17,2 C 15,6 C 81 % 1008,5 hPa 0,0 l/m 0 min 0 min 0 W/m 16,1 km/h (3 Bft) 93,62 %
22.10.2020 00:50 18,0 C 17,2 C 15,6 C 81 % 1008,6 hPa 0,0 l/m 0 min 0 min 0 W/m 0,0 km/h (0 Bft) 95,65 %
22.10.2020 00:52 18,0 C 17,2 C 15,6 C 81 % 1008,6 hPa 0,0 l/m 0 min 0 min 0 W/m 6,4 km/h (2 Bft) 95,74 %
22.10.2020 00:54 18,0 C 17,2 C 15,6 C 81 % 1008,7 hPa 0,0 l/m 0 min 0 min 0 W/m 19,3 km/h (3 Bft) 95,74 %
22.10.2020 00:56 18,0 C 17,2 C 15,6 C 81 % 1008,8 hPa 0,0 l/m 0 min 0 min 0 W/m 12,9 km/h (3 Bft) 95,74 %
22.10.2020 00:58 17,9 C 17,2 C 15,6 C 81 % 1008,8 hPa 0,0 l/m 0 min 0 min 0 W/m 12,9 km/h (3 Bft) 95,74 %
22.10.2020 01:00 17,9 C 16,7 C 15,6 C 81 % 1008,8 hPa 0,0 l/m 0 min 0 min 0 W/m 0,0 km/h (0 Bft) 93,48 %
22.10.2020 01:02 17,9 C 16,7 C 15,0 C 81 % 1008,8 hPa 0,0 l/m 0 min 0 min 0 W/m 6,4 km/h (2 Bft) 95,74 %
22.10.2020 01:04 17,9 C 16,7 C 15,0 C 81 % 1008,9 hPa 0,0 l/m 0 min 0 min 0 W/m 16,1 km/h (3 Bft) 93,62 %
22.10.2020 01:06 17,9 C 16,7 C 15,0 C 82 % 1008,9 hPa 0,0 l/m 0 min 0 min 0 W/m 16,1 km/h (3 Bft) 95,74 %
22.10.2020 01:08 17,9 C 16,7 C 15,6 C 82 % 1008,9 hPa 0,0 l/m 0 min 0 min 0 W/m 16,1 km/h (3 Bft) 95,74 %
22.10.2020 01:10 17,9 C 16,7 C 15,0 C 82 % 1008,9 hPa 0,0 l/m 0 min 0 min 0 W/m 0,0 km/h (0 Bft) 95,74 %
22.10.2020 01:12 17,8 C 16,7 C 15,0 C 82 % 1008,8 hPa 0,0 l/m 0 min 0 min 0 W/m 12,9 km/h (3 Bft) 95,65 %
22.10.2020 01:14 17,8 C 16,7 C 15,0 C 82 % 1008,9 hPa 0,0 l/m 0 min 0 min 0 W/m 12,9 km/h (3 Bft) 95,74 %
22.10.2020 01:16 17,8 C 16,7 C 15,0 C 82 % 1008,9 hPa 0,0 l/m 0 min 0 min 0 W/m 19,3 km/h (3 Bft) 97,87 %
22.10.2020 01:18 17,8 C 16,7 C 15,0 C 82 % 1008,9 hPa 0,0 l/m 0 min 0 min 0 W/m 12,9 km/h (3 Bft) 95,74 %
22.10.2020 01:20 17,8 C 16,7 C 15,0 C 82 % 1008,9 hPa 0,0 l/m 0 min 0 min 0 W/m 22,5 km/h (4 Bft) 100,00 %
22.10.2020 01:22 17,8 C 16,7 C 15,0 C 82 % 1009,0 hPa 0,0 l/m 0 min 0 min 0 W/m 19,3 km/h (3 Bft) 97,87 %
22.10.2020 01:24 17,8 C 16,7 C 15,0 C 82 % 1008,9 hPa 0,0 l/m 0 min 0 min 0 W/m 16,1 km/h (3 Bft) 100,00 %
22.10.2020 01:26 17,8 C 16,7 C 15,0 C 82 % 1008,9 hPa 0,0 l/m 0 min 0 min 0 W/m 0,0 km/h (0 Bft) 100,00 %
22.10.2020 01:28 17,8 C 16,7 C 15,0 C 82 % 1008,9 hPa 0,0 l/m 0 min 0 min 0 W/m 0,0 km/h (0 Bft) 100,00 %
22.10.2020 01:30 17,8 C 16,7 C 15,0 C 82 % 1009,0 hPa 0,0 l/m 0 min 0 min 0 W/m 6,4 km/h (2 Bft) 100,00 %
22.10.2020 01:32 17,7 C 16,7 C 15,0 C 82 % 1009,0 hPa 0,0 l/m 0 min 0 min 0 W/m 0,0 km/h (0 Bft) 95,74 %
22.10.2020 01:34 17,7 C 16,7 C 15,0 C 82 % 1009,0 hPa 0,0 l/m 0 min 0 min 0 W/m 6,4 km/h (2 Bft) 100,00 %
22.10.2020 01:36 17,7 C 16,7 C 15,0 C 82 % 1009,1 hPa 0,0 l/m 0 min 0 min 0 W/m 0,0 km/h (0 Bft) 97,83 %
22.10.2020 01:38 17,7 C 16,7 C 15,0 C 82 % 1009,0 hPa 0,0 l/m 0 min 0 min 0 W/m 0,0 km/h (0 Bft) 97,87 %
22.10.2020 01:40 17,7 C 16,7 C 15,0 C 82 % 1009,1 hPa 0,0 l/m 0 min 0 min 0 W/m 3,2 km/h (1 Bft) 100,00 %
22.10.2020 01:42 17,6 C 16,7 C 15,0 C 82 % 1009,0 hPa 0,0 l/m 0 min 0 min 0 W/m 22,5 km/h (4 Bft) 100,00 %
22.10.2020 01:44 17,6 C 16,7 C 15,0 C 82 % 1009,1 hPa 0,0 l/m 0 min 0 min 0 W/m 16,1 km/h (3 Bft) 100,00 %
22.10.2020 01:46 17,6 C 16,7 C 15,0 C 82 % 1009,1 hPa 0,0 l/m 0 min 0 min 0 W/m 16,1 km/h (3 Bft) 100,00 %
22.10.2020 01:48 17,6 C 16,7 C 15,0 C 82 % 1009,1 hPa 0,0 l/m 0 min 0 min 0 W/m 22,5 km/h (4 Bft) 100,00 %
22.10.2020 01:50 17,6 C 16,7 C 15,0 C 82 % 1009,1 hPa 0,0 l/m 0 min 0 min 0 W/m 16,1 km/h (3 Bft) 100,00 %
22.10.2020 01:52 17,6 C 16,7 C 15,0 C 82 % 1009,1 hPa 0,0 l/m 0 min 0 min 0 W/m 22,5 km/h (4 Bft) 100,00 %
22.10.2020 01:54 17,5 C 16,7 C 15,0 C 82 % 1009,2 hPa 0,0 l/m 0 min 0 min 0 W/m 12,9 km/h (3 Bft) 100,00 %
22.10.2020 01:56 17,5 C 16,7 C 15,0 C 82 % 1009,3 hPa 0,0 l/m 0 min 0 min 0 W/m 19,3 km/h (3 Bft) 100,00 %
22.10.2020 01:58 17,5 C 16,7 C 15,0 C 82 % 1009,2 hPa 0,0 l/m 0 min 0 min 0 W/m 19,3 km/h (3 Bft) 100,00 %
22.10.2020 02:00 17,5 C 16,7 C 15,0 C 82 % 1009,2 hPa 0,0 l/m 0 min 0 min 0 W/m 22,5 km/h (4 Bft) 100,00 %
22.10.2020 02:02 17,5 C 16,7 C 15,0 C 82 % 1009,3 hPa 0,0 l/m 0 min 0 min 0 W/m 19,3 km/h (3 Bft) 100,00 %
22.10.2020 02:04 17,5 C 16,7 C 15,0 C 82 % 1009,2 hPa 0,0 l/m 0 min 0 min 0 W/m 19,3 km/h (3 Bft) 100,00 %
22.10.2020 02:06 17,5 C 16,7 C 15,0 C 82 % 1009,3 hPa 0,0 l/m 0 min 0 min 0 W/m 19,3 km/h (3 Bft) 97,87 %
22.10.2020 02:08 17,5 C 16,7 C 15,0 C 82 % 1009,3 hPa 0,0 l/m 0 min 0 min 0 W/m 19,3 km/h (3 Bft) 100,00 %
22.10.2020 02:10 17,5 C 16,7 C 15,0 C 82 % 1009,3 hPa 0,0 l/m 0 min 0 min 0 W/m 19,3 km/h (3 Bft) 100,00 %
22.10.2020 02:12 17,5 C 16,7 C 15,0 C 82 % 1009,4 hPa 0,0 l/m 0 min 0 min 0 W/m 19,3 km/h (3 Bft) 100,00 %
22.10.2020 02:14 17,5 C 16,7 C 15,0 C 82 % 1009,4 hPa 0,0 l/m 0 min 0 min 0 W/m 19,3 km/h (3 Bft) 100,00 %
22.10.2020 02:16 17,5 C 16,1 C 15,0 C 82 % 1009,4 hPa 0,0 l/m 0 min 0 min 0 W/m 16,1 km/h (3 Bft) 100,00 %
22.10.2020 02:18 17,4 C 16,1 C 15,0 C 81 % 1009,5 hPa 0,0 l/m 0 min 0 min 0 W/m 19,3 km/h (3 Bft) 100,00 %
22.10.2020 02:20 17,4 C 16,1 C 15,0 C 81 % 1009,4 hPa 0,0 l/m 0 min 0 min 0 W/m 16,1 km/h (3 Bft) 100,00 %
22.10.2020 02:22 17,4 C 16,1 C 15,0 C 81 % 1009,5 hPa 0,0 l/m 0 min 0 min 0 W/m 0,0 km/h (0 Bft) 100,00 %
22.10.2020 02:24 17,4 C 16,1 C 14,5 C 81 % 1009,5 hPa 0,0 l/m 0 min 0 min 0 W/m 6,4 km/h (2 Bft) 100,00 %
22.10.2020 02:26 17,4 C 16,1 C 14,5 C 82 % 1009,6 hPa 0,0 l/m 0 min 0 min 0 W/m 16,1 km/h (3 Bft) 100,00 %
22.10.2020 02:28 17,3 C 16,1 C 14,5 C 82 % 1009,5 hPa 0,0 l/m 0 min 0 min 0 W/m 12,9 km/h (3 Bft) 100,00 %
22.10.2020 02:30 17,3 C 16,1 C 14,5 C 82 % 1009,6 hPa 0,0 l/m 0 min 0 min 0 W/m 12,9 km/h (3 Bft) 100,00 %
22.10.2020 02:32 17,3 C 16,1 C 14,5 C 82 % 1009,5 hPa 0,0 l/m 0 min 0 min 0 W/m 0,0 km/h (0 Bft) 100,00 %
22.10.2020 02:34 17,3 C 16,1 C 14,5 C 82 % 1009,5 hPa 0,0 l/m 0 min 0 min 0 W/m 16,1 km/h (3 Bft) 100,00 %
22.10.2020 02:36 17,2 C 16,1 C 14,5 C 82 % 1009,6 hPa 0,0 l/m 0 min 0 min 0 W/m 12,9 km/h (3 Bft) 100,00 %
22.10.2020 02:38 17,2 C 16,1 C 14,5 C 82 % 1009,7 hPa 0,0 l/m 0 min 0 min 0 W/m 19,3 km/h (3 Bft) 100,00 %
22.10.2020 02:40 17,1 C 15,6 C 14,5 C 82 % 1009,7 hPa 0,0 l/m 0 min 0 min 0 W/m 19,3 km/h (3 Bft) 100,00 %
22.10.2020 02:42 17,1 C 16,1 C 14,5 C 82 % 1009,7 hPa 0,0 l/m 0 min 0 min 0 W/m 19,3 km/h (3 Bft) 100,00 %
22.10.2020 02:44 17,1 C 16,1 C 14,5 C 82 % 1009,7 hPa 0,0 l/m 0 min 0 min 0 W/m 22,5 km/h (4 Bft) 100,00 %
22.10.2020 02:46 17,0 C 16,1 C 14,5 C 82 % 1009,7 hPa 0,0 l/m 0 min 0 min 0 W/m 25,7 km/h (4 Bft) 95,65 %
22.10.2020 02:48 17,0 C 15,6 C 14,5 C 82 % 1009,8 hPa 0,0 l/m 0 min 0 min 0 W/m 0,0 km/h (0 Bft) 100,00 %
22.10.2020 02:50 17,0 C 15,6 C 14,5 C 82 % 1009,7 hPa 0,0 l/m 0 min 0 min 0 W/m 16,1 km/h (3 Bft) 97,87 %
22.10.2020 02:52 17,0 C 15,6 C 14,5 C 82 % 1009,7 hPa 0,0 l/m 0 min 0 min 0 W/m 12,9 km/h (3 Bft) 100,00 %
22.10.2020 02:54 16,9 C 15,6 C 14,5 C 82 % 1009,7 hPa 0,0 l/m 0 min 0 min 0 W/m 12,9 km/h (3 Bft) 97,87 %
22.10.2020 02:56 16,9 C 15,6 C 14,5 C 82 % 1009,8 hPa 0,0 l/m 0 min 0 min 0 W/m 6,4 km/h (2 Bft) 100,00 %
22.10.2020 02:58 16,9 C 15,6 C 13,9 C 82 % 1009,8 hPa 0,0 l/m 0 min 0 min 0 W/m 3,2 km/h (1 Bft) 97,87 %
22.10.2020 03:00 16,9 C 15,6 C 13,9 C 83 % 1009,9 hPa 0,0 l/m 0 min 0 min 0 W/m 12,9 km/h (3 Bft) 100,00 %
22.10.2020 03:02 16,8 C 15,6 C 13,9 C 83 % 1009,9 hPa 0,0 l/m 0 min 0 min 0 W/m 12,9 km/h (3 Bft) 95,74 %
22.10.2020 03:04 16,8 C 15,6 C 13,9 C 83 % 1009,9 hPa 0,0 l/m 0 min 0 min 0 W/m 16,1 km/h (3 Bft) 97,87 %
22.10.2020 03:06 16,8 C 15,6 C 13,9 C 83 % 1009,8 hPa 0,0 l/m 0 min 0 min 0 W/m 19,3 km/h (3 Bft) 97,87 %
22.10.2020 03:08 16,7 C 15,6 C 13,9 C 83 % 1009,8 hPa 0,0 l/m 0 min 0 min 0 W/m 0,0 km/h (0 Bft) 97,83 %
22.10.2020 03:10 16,6 C 15,6 C 13,9 C 83 % 1009,9 hPa 0,0 l/m 0 min 0 min 0 W/m 0,0 km/h (0 Bft) 97,87 %
22.10.2020 03:12 16,6 C 15,6 C 13,9 C 83 % 1009,8 hPa 0,0 l/m 0 min 0 min 0 W/m 3,2 km/h (1 Bft) 95,74 %
22.10.2020 03:14 16,6 C 15,0 C 13,9 C 83 % 1009,9 hPa 0,0 l/m 0 min 0 min 0 W/m 0,0 km/h (0 Bft) 95,74 %
22.10.2020 03:16 16,5 C 15,0 C 13,9 C 83 % 1009,9 hPa 0,0 l/m 0 min 0 min 0 W/m 0,0 km/h (0 Bft) 91,49 %
22.10.2020 03:18 16,5 C 15,0 C 13,4 C 83 % 1009,9 hPa 0,0 l/m 0 min 0 min 0 W/m 3,2 km/h (1 Bft) 93,62 %
22.10.2020 03:20 16,5 C 15,0 C 13,9 C 83 % 1010,0 hPa 0,0 l/m 0 min 0 min 0 W/m 16,1 km/h (3 Bft) 95,65 %
22.10.2020 03:22 16,5 C 15,0 C 13,4 C 83 % 1010,0 hPa 0,0 l/m 0 min 0 min 0 W/m 0,0 km/h (0 Bft) 95,24 %
22.10.2020 03:24 16,4 C 15,0 C 13,4 C 84 % 1010,1 hPa 0,0 l/m 0 min 0 min 0 W/m 6,4 km/h (2 Bft) 93,62 %
22.10.2020 03:26 16,4 C 15,0 C 13,4 C 84 % 1010,0 hPa 0,0 l/m 0 min 0 min 0 W/m 6,4 km/h (2 Bft) 93,62 %
22.10.2020 03:28 16,4 C 15,0 C 13,4 C 84 % 1010,1 hPa 0,0 l/m 0 min 0 min 0 W/m 12,9 km/h (3 Bft) 93,62 %
22.10.2020 03:30 16,3 C 14,4 C 13,4 C 84 % 1010,0 hPa 0,0 l/m 0 min 0 min 0 W/m 6,4 km/h (2 Bft) 93,62 %
22.10.2020 03:32 16,3 C 15,0 C 13,4 C 84 % 1010,1 hPa 0,0 l/m 0 min 0 min 0 W/m 16,1 km/h (3 Bft) 93,48 %
22.10.2020 03:34 16,3 C 15,0 C 13,4 C 84 % 1010,1 hPa 0,0 l/m 0 min 0 min 0 W/m 0,0 km/h (0 Bft) 95,74 %
22.10.2020 03:36 16,2 C 15,0 C 13,4 C 84 % 1010,1 hPa 0,0 l/m 0 min 0 min 0 W/m 3,2 km/h (1 Bft) 93,62 %
22.10.2020 03:38 16,2 C 15,0 C 13,4 C 84 % 1010,1 hPa 0,0 l/m 0 min 0 min 0 W/m 0,0 km/h (0 Bft) 91,49 %
22.10.2020 03:40 16,1 C 15,0 C 13,4 C 84 % 1010,1 hPa 0,0 l/m 0 min 0 min 0 W/m 0,0 km/h (0 Bft) 93,62 %
22.10.2020 03:42 16,1 C 14,4 C 13,4 C 84 % 1010,2 hPa 0,0 l/m 0 min 0 min 0 W/m 0,0 km/h (0 Bft) 93,62 %
22.10.2020 03:44 16,1 C 14,4 C 13,4 C 84 % 1010,2 hPa 0,0 l/m 0 min 0 min 0 W/m 0,0 km/h (0 Bft) 91,30 %
22.10.2020 03:46 16,0 C 14,4 C 13,4 C 85 % 1010,2 hPa 0,0 l/m 0 min 0 min 0 W/m 0,0 km/h (0 Bft) 91,49 %
22.10.2020 03:48 16,0 C 14,4 C 12,8 C 85 % 1010,1 hPa 0,0 l/m 0 min 0 min 0 W/m 0,0 km/h (0 Bft) 93,62 %
22.10.2020 03:50 16,0 C 14,4 C 12,8 C 85 % 1010,1 hPa 0,0 l/m 0 min 0 min 0 W/m 3,2 km/h (1 Bft) 93,62 %
22.10.2020 03:52 15,9 C 14,4 C 12,8 C 85 % 1010,1 hPa 0,0 l/m 0 min 0 min 0 W/m 0,0 km/h (0 Bft) 93,62 %
22.10.2020 03:54 15,9 C 13,9 C 12,8 C 84 % 1010,1 hPa 0,0 l/m 0 min 0 min 0 W/m 0,0 km/h (0 Bft) 93,62 %
22.10.2020 03:56 15,9 C 13,9 C 12,8 C 85 % 1010,1 hPa 0,0 l/m 0 min 0 min 0 W/m 0,0 km/h (0 Bft) 91,30 %
22.10.2020 03:58 15,9 C 13,9 C 12,2 C 85 % 1010,1 hPa 0,0 l/m 0 min 0 min 0 W/m 0,0 km/h (0 Bft) 93,62 %
22.10.2020 04:00 15,8 C 13,9 C 12,2 C 85 % 1010,1 hPa 0,0 l/m 0 min 0 min 0 W/m 0,0 km/h (0 Bft) 95,74 %
22.10.2020 04:02 15,8 C 13,9 C 12,2 C 85 % 1010,1 hPa 0,0 l/m 0 min 0 min 0 W/m 0,0 km/h (0 Bft) 96,15 %
22.10.2020 04:04 15,7 C 13,9 C 12,2 C 85 % 1010,0 hPa 0,0 l/m 0 min 0 min 0 W/m 0,0 km/h (0 Bft) 95,74 %
22.10.2020 04:06 15,6 C 13,9 C 12,2 C 85 % 1010,0 hPa 0,0 l/m 0 min 0 min 0 W/m 0,0 km/h (0 Bft) 95,65 %
22.10.2020 04:08 15,6 C 13,9 C 12,2 C 85 % 1010,0 hPa 0,0 l/m 0 min 0 min 0 W/m 0,0 km/h (0 Bft) 95,74 %
22.10.2020 04:10 15,6 C 13,9 C 11,7 C 85 % 1010,0 hPa 0,0 l/m 0 min 0 min 0 W/m 0,0 km/h (0 Bft) 97,87 %
22.10.2020 04:12 15,5 C 13,9 C 11,7 C 85 % 1010,1 hPa 0,0 l/m 0 min 0 min 0 W/m 0,0 km/h (0 Bft) 95,74 %
22.10.2020 04:14 15,5 C 13,3 C 11,7 C 85 % 1010,1 hPa 0,0 l/m 0 min 0 min 0 W/m 0,0 km/h (0 Bft) 97,87 %
22.10.2020 04:16 15,5 C 13,3 C 11,7 C 85 % 1010,1 hPa 0,0 l/m 0 min 0 min 0 W/m 0,0 km/h (0 Bft) 100,00 %
22.10.2020 04:18 15,4 C 13,3 C 11,7 C 86 % 1010,1 hPa 0,0 l/m 0 min 0 min 0 W/m 0,0 km/h (0 Bft) 97,83 %
22.10.2020 04:20 15,4 C 13,3 C 11,7 C 86 % 1010,2 hPa 0,0 l/m 0 min 0 min 0 W/m 0,0 km/h (0 Bft) 95,74 %
22.10.2020 04:22 15,3 C 13,3 C 11,1 C 86 % 1010,2 hPa 0,0 l/m 0 min 0 min 0 W/m 0,0 km/h (0 Bft) 100,00 %
22.10.2020 04:24 15,3 C 13,3 C 11,1 C 86 % 1010,1 hPa 0,0 l/m 0 min 0 min 0 W/m 0,0 km/h (0 Bft) 100,00 %
22.10.2020 04:26 15,3 C 13,3 C 11,1 C 86 % 1010,2 hPa 0,0 l/m 0 min 0 min 0 W/m 0,0 km/h (0 Bft) 97,87 %
22.10.2020 04:28 15,2 C 13,3 C 11,1 C 86 % 1010,1 hPa 0,0 l/m 0 min 0 min 0 W/m 0,0 km/h (0 Bft) 97,87 %
22.10.2020 04:30 15,1 C 13,3 C 11,1 C 86 % 1010,1 hPa 0,0 l/m 0 min 0 min 0 W/m 0,0 km/h (0 Bft) 100,00 %
22.10.2020 04:32 15,1 C 13,3 C 11,1 C 86 % 1010,1 hPa 0,0 l/m 0 min 0 min 0 W/m 0,0 km/h (0 Bft) 100,00 %
22.10.2020 04:34 15,0 C 13,3 C 11,1 C 86 % 1010,1 hPa 0,0 l/m 0 min 0 min 0 W/m 0,0 km/h (0 Bft) 100,00 %
22.10.2020 04:36 15,0 C 13,3 C 11,1 C 86 % 1010,2 hPa 0,0 l/m 0 min 0 min 0 W/m 0,0 km/h (0 Bft) 97,87 %
22.10.2020 04:38 15,0 C 13,3 C 11,1 C 86 % 1010,2 hPa 0,0 l/m 0 min 0 min 0 W/m 0,0 km/h (0 Bft) 100,00 %
22.10.2020 04:40 14,9 C 12,8 C 11,1 C 86 % 1010,2 hPa 0,0 l/m 0 min 0 min 0 W/m 9,7 km/h (2 Bft) 100,00 %
22.10.2020 04:42 14,9 C 12,8 C 11,1 C 87 % 1010,3 hPa 0,0 l/m 0 min 0 min 0 W/m 0,0 km/h (0 Bft) 100,00 %
22.10.2020 04:44 14,9 C 12,8 C 11,1 C 87 % 1010,3 hPa 0,0 l/m 0 min 0 min 0 W/m 0,0 km/h (0 Bft) 100,00 %
22.10.2020 04:46 14,8 C 12,8 C 11,1 C 87 % 1010,3 hPa 0,0 l/m 0 min 0 min 0 W/m 0,0 km/h (0 Bft) 97,87 %
22.10.2020 04:48 14,8 C 13,3 C 11,1 C 87 % 1010,3 hPa 0,0 l/m 0 min 0 min 0 W/m 3,2 km/h (1 Bft) 100,00 %
22.10.2020 04:51 14,7 C 12,8 C 11,1 C 87 % 1010,4 hPa 0,0 l/m 0 min 0 min 0 W/m 0,0 km/h (0 Bft) 98,57 %
22.10.2020 04:52 14,6 C 12,8 C 11,1 C 87 % 1010,4 hPa 0,0 l/m 0 min 0 min 0 W/m 0,0 km/h (0 Bft) 100,00 %
22.10.2020 04:54 14,6 C 12,8 C 11,1 C 87 % 1010,4 hPa 0,0 l/m 0 min 0 min 0 W/m 0,0 km/h (0 Bft) 100,00 %
22.10.2020 04:56 14,6 C 12,8 C 11,1 C 87 % 1010,5 hPa 0,0 l/m 0 min 0 min 0 W/m 3,2 km/h (1 Bft) 100,00 %
22.10.2020 04:58 14,5 C 13,3 C 11,1 C 88 % 1010,5 hPa 0,0 l/m 0 min 0 min 0 W/m 0,0 km/h (0 Bft) 100,00 %
22.10.2020 05:00 14,5 C 13,3 C 11,7 C 88 % 1010,5 hPa 0,0 l/m 0 min 0 min 0 W/m 0,0 km/h (0 Bft) 100,00 %
22.10.2020 05:02 14,5 C 13,3 C 11,7 C 88 % 1010,5 hPa 0,0 l/m 0 min 0 min 0 W/m 0,0 km/h (0 Bft) 100,00 %
22.10.2020 05:04 14,4 C 13,3 C 11,1 C 88 % 1010,5 hPa 0,0 l/m 0 min 0 min 0 W/m 0,0 km/h (0 Bft) 100,00 %
22.10.2020 05:06 14,4 C 13,3 C 11,1 C 88 % 1010,5 hPa 0,0 l/m 0 min 0 min 0 W/m 0,0 km/h (0 Bft) 100,00 %
22.10.2020 05:08 14,4 C 13,3 C 11,7 C 89 % 1010,5 hPa 0,0 l/m 0 min 0 min 0 W/m 0,0 km/h (0 Bft) 100,00 %
22.10.2020 05:10 14,3 C 13,3 C 11,7 C 89 % 1010,5 hPa 0,0 l/m 0 min 0 min 0 W/m 0,0 km/h (0 Bft) 100,00 %
22.10.2020 05:12 14,3 C 13,3 C 11,1 C 89 % 1010,5 hPa 0,0 l/m 0 min 0 min 0 W/m 0,0 km/h (0 Bft) 100,00 %
22.10.2020 05:14 14,3 C 13,3 C 11,1 C 89 % 1010,5 hPa 0,0 l/m 0 min 0 min 0 W/m 0,0 km/h (0 Bft) 100,00 %
22.10.2020 05:16 14,2 C 12,8 C 11,1 C 89 % 1010,5 hPa 0,0 l/m 0 min 0 min 0 W/m 0,0 km/h (0 Bft) 100,00 %
22.10.2020 05:18 14,2 C 12,8 C 11,1 C 89 % 1010,5 hPa 0,0 l/m 0 min 0 min 0 W/m 0,0 km/h (0 Bft) 100,00 %
22.10.2020 05:20 14,2 C 12,8 C 11,1 C 89 % 1010,5 hPa 0,0 l/m 0 min 0 min 0 W/m 0,0 km/h (0 Bft) 100,00 %
22.10.2020 05:22 14,2 C 12,8 C 11,1 C 89 % 1010,5 hPa 0,0 l/m 0 min 0 min 0 W/m 0,0 km/h (0 Bft) 97,87 %
22.10.2020 05:24 14,2 C 12,8 C 10,6 C 89 % 1010,5 hPa 0,0 l/m 0 min 0 min 0 W/m 0,0 km/h (0 Bft) 100,00 %
22.10.2020 05:26 14,2 C 12,8 C 10,6 C 89 % 1010,5 hPa 0,0 l/m 0 min 0 min 0 W/m 0,0 km/h (0 Bft) 100,00 %
22.10.2020 05:28 14,2 C 12,8 C 10,6 C 89 % 1010,4 hPa 0,0 l/m 0 min 0 min 0 W/m 0,0 km/h (0 Bft) 100,00 %
22.10.2020 05:30 14,2 C 12,8 C 10,6 C 89 % 1010,4 hPa 0,0 l/m 0 min 0 min 0 W/m 0,0 km/h (0 Bft) 97,87 %
22.10.2020 05:32 14,1 C 12,8 C 10,6 C 89 % 1010,4 hPa 0,0 l/m 0 min 0 min 0 W/m 0,0 km/h (0 Bft) 100,00 %
22.10.2020 05:34 14,1 C 12,8 C 10,6 C 90 % 1010,5 hPa 0,0 l/m 0 min 0 min 0 W/m 0,0 km/h (0 Bft) 97,87 %
22.10.2020 05:36 14,1 C 12,8 C 10,6 C 90 % 1010,5 hPa 0,0 l/m 0 min 0 min 0 W/m 0,0 km/h (0 Bft) 97,87 %
22.10.2020 05:38 14,0 C 12,8 C 10,6 C 90 % 1010,4 hPa 0,0 l/m 0 min 0 min 0 W/m 0,0 km/h (0 Bft) 100,00 %
22.10.2020 05:40 14,0 C 12,8 C 10,6 C 90 % 1010,4 hPa 0,0 l/m 0 min 0 min 0 W/m 0,0 km/h (0 Bft) 100,00 %
22.10.2020 05:42 14,0 C 12,8 C 11,1 C 90 % 1010,4 hPa 0,0 l/m 0 min 0 min 0 W/m 0,0 km/h (0 Bft) 100,00 %
22.10.2020 05:44 14,0 C 12,8 C 11,1 C 90 % 1010,4 hPa 0,0 l/m 0 min 0 min 0 W/m 0,0 km/h (0 Bft) 97,87 %
22.10.2020 05:46 14,0 C 12,8 C 11,1 C 90 % 1010,5 hPa 0,0 l/m 0 min 0 min 0 W/m 0,0 km/h (0 Bft) 100,00 %
22.10.2020 05:48 14,0 C 13,3 C 11,1 C 90 % 1010,4 hPa 0,0 l/m 0 min 0 min 0 W/m 0,0 km/h (0 Bft) 100,00 %
22.10.2020 05:50 13,9 C 13,3 C 11,7 C 90 % 1010,4 hPa 0,0 l/m 0 min 0 min 0 W/m 0,0 km/h (0 Bft) 97,87 %
22.10.2020 05:52 13,9 C 13,3 C 11,7 C 90 % 1010,4 hPa 0,0 l/m 0 min 0 min 0 W/m 0,0 km/h (0 Bft) 97,83 %
22.10.2020 05:54 13,9 C 13,3 C 11,1 C 91 % 1010,3 hPa 0,0 l/m 0 min 0 min 0 W/m 0,0 km/h (0 Bft) 97,87 %
22.10.2020 05:56 13,9 C 12,8 C 11,1 C 91 % 1010,3 hPa 0,0 l/m 0 min 0 min 0 W/m 0,0 km/h (0 Bft) 97,92 %
22.10.2020 05:58 13,9 C 13,3 C 11,1 C 91 % 1010,3 hPa 0,0 l/m 0 min 0 min 0 W/m 0,0 km/h (0 Bft) 97,87 %
22.10.2020 06:00 13,9 C 12,8 C 11,1 C 91 % 1010,3 hPa 0,0 l/m 0 min 0 min 0 W/m 0,0 km/h (0 Bft) 97,87 %
22.10.2020 06:02 13,9 C 12,8 C 11,1 C 91 % 1010,3 hPa 0,0 l/m 0 min 0 min 0 W/m 0,0 km/h (0 Bft) 95,65 %
22.10.2020 06:04 13,9 C 12,8 C 11,7 C 91 % 1010,3 hPa 0,0 l/m 0 min 0 min 0 W/m 0,0 km/h (0 Bft) 95,74 %
22.10.2020 06:06 13,9 C 12,8 C 11,7 C 91 % 1010,3 hPa 0,0 l/m 0 min 0 min 0 W/m 0,0 km/h (0 Bft) 95,74 %
22.10.2020 06:08 13,9 C 12,8 C 11,7 C 91 % 1010,4 hPa 0,0 l/m 0 min 0 min 0 W/m 0,0 km/h (0 Bft) 97,87 %
22.10.2020 06:10 13,9 C 12,8 C 11,7 C 91 % 1010,3 hPa 0,0 l/m 0 min 0 min 0 W/m 0,0 km/h (0 Bft) 91,49 %
22.10.2020 06:12 13,9 C 12,8 C 11,7 C 91 % 1010,3 hPa 0,0 l/m 0 min 0 min 0 W/m 0,0 km/h (0 Bft) 95,74 %
22.10.2020 06:14 13,8 C 12,8 C 11,7 C 91 % 1010,3 hPa 0,0 l/m 0 min 0 min 0 W/m 0,0 km/h (0 Bft) 93,48 %
22.10.2020 06:16 13,8 C 12,8 C 11,1 C 91 % 1010,2 hPa 0,0 l/m 0 min 0 min 0 W/m 0,0 km/h (0 Bft) 95,74 %
22.10.2020 06:18 13,8 C 12,8 C 11,1 C 91 % 1010,3 hPa 0,0 l/m 0 min 0 min 0 W/m 0,0 km/h (0 Bft) 95,74 %
22.10.2020 06:20 13,8 C 12,8 C 11,7 C 91 % 1010,2 hPa 0,0 l/m 0 min 0 min 0 W/m 0,0 km/h (0 Bft) 95,74 %
22.10.2020 06:22 13,8 C 12,8 C 11,1 C 92 % 1010,3 hPa 0,0 l/m 0 min 0 min 0 W/m 0,0 km/h (0 Bft) 91,49 %
22.10.2020 06:24 13,8 C 12,8 C 11,7 C 92 % 1010,3 hPa 0,0 l/m 0 min 0 min 0 W/m 0,0 km/h (0 Bft) 95,74 %
22.10.2020 06:26 13,8 C 12,8 C 11,7 C 92 % 1010,3 hPa 0,0 l/m 0 min 0 min 0 W/m 0,0 km/h (0 Bft) 95,92 %
22.10.2020 06:28 13,8 C 12,8 C 11,7 C 92 % 1010,3 hPa 0,0 l/m 0 min 0 min 0 W/m 0,0 km/h (0 Bft) 95,74 %
22.10.2020 06:30 13,8 C 12,8 C 11,7 C 92 % 1010,3 hPa 0,0 l/m 0 min 0 min 0 W/m 0,0 km/h (0 Bft) 93,62 %
22.10.2020 06:32 13,8 C 12,8 C 11,7 C 92 % 1010,3 hPa 0,0 l/m 0 min 0 min 0 W/m 0,0 km/h (0 Bft) 93,62 %
22.10.2020 06:34 13,8 C 12,8 C 11,7 C 92 % 1010,3 hPa 0,0 l/m 0 min 0 min 0 W/m 0,0 km/h (0 Bft) 95,74 %
22.10.2020 06:36 13,8 C 12,8 C 11,7 C 92 % 1010,4 hPa 0,0 l/m 0 min 0 min 0 W/m 0,0 km/h (0 Bft) 95,74 %
22.10.2020 06:38 13,8 C 12,8 C 11,7 C 92 % 1010,4 hPa 0,0 l/m 0 min 0 min 0 W/m 0,0 km/h (0 Bft) 97,83 %
22.10.2020 06:40 13,8 C 12,8 C 11,7 C 92 % 1010,4 hPa 0,0 l/m 0 min 0 min 0 W/m 0,0 km/h (0 Bft) 97,87 %
22.10.2020 06:42 13,8 C 12,8 C 11,7 C 92 % 1010,5 hPa 0,0 l/m 0 min 0 min 0 W/m 0,0 km/h (0 Bft) 100,00 %
22.10.2020 06:44 13,8 C 12,8 C 11,7 C 92 % 1010,4 hPa 0,0 l/m 0 min 0 min 0 W/m 0,0 km/h (0 Bft) 97,87 %
22.10.2020 06:46 13,8 C 12,8 C 11,7 C 92 % 1010,4 hPa 0,0 l/m 0 min 0 min 0 W/m 0,0 km/h (0 Bft) 95,74 %
22.10.2020 06:48 13,8 C 13,3 C 11,7 C 92 % 1010,4 hPa 0,0 l/m 0 min 0 min 0 W/m 0,0 km/h (0 Bft) 97,87 %
22.10.2020 06:50 13,8 C 13,3 C 11,7 C 93 % 1010,4 hPa 0,0 l/m 0 min 0 min 0 W/m 0,0 km/h (0 Bft) 97,83 %
22.10.2020 06:52 13,8 C 13,3 C 11,7 C 93 % 1010,4 hPa 0,0 l/m 0 min 0 min 0 W/m 0,0 km/h (0 Bft) 97,87 %
22.10.2020 06:54 13,8 C 13,3 C 11,7 C 93 % 1010,5 hPa 0,0 l/m 0 min 0 min 0 W/m 0,0 km/h (0 Bft) 97,87 %
22.10.2020 06:56 13,8 C 13,3 C 11,7 C 93 % 1010,4 hPa 0,0 l/m 0 min 0 min 0 W/m 0,0 km/h (0 Bft) 97,87 %
22.10.2020 06:58 13,8 C 13,3 C 11,7 C 93 % 1010,4 hPa 0,0 l/m 0 min 0 min 0 W/m 0,0 km/h (0 Bft) 95,74 %
22.10.2020 07:00 13,8 C 13,3 C 11,7 C 93 % 1010,3 hPa 0,0 l/m 0 min 0 min 0 W/m 0,0 km/h (0 Bft) 100,00 %
22.10.2020 07:02 13,8 C 13,3 C 11,7 C 93 % 1010,4 hPa 0,0 l/m 0 min 0 min 0 W/m 0,0 km/h (0 Bft) 100,00 %
22.10.2020 07:04 13,8 C 13,3 C 11,7 C 93 % 1010,4 hPa 0,0 l/m 0 min 0 min 0 W/m 0,0 km/h (0 Bft) 97,87 %
22.10.2020 07:06 13,8 C 13,3 C 12,2 C 93 % 1010,3 hPa 0,0 l/m 0 min 0 min 0 W/m 0,0 km/h (0 Bft) 100,00 %
22.10.2020 07:08 13,9 C 13,3 C 12,2 C 93 % 1010,4 hPa 0,0 l/m 0 min 0 min 0 W/m 6,4 km/h (2 Bft) 100,00 %
22.10.2020 07:10 13,9 C 13,3 C 12,2 C 93 % 1010,4 hPa 0,0 l/m 0 min 0 min 0 W/m 12,9 km/h (3 Bft) 97,87 %
22.10.2020 07:12 13,9 C 13,3 C 12,2 C 93 % 1010,5 hPa 0,0 l/m 0 min 0 min 0 W/m 16,1 km/h (3 Bft) 95,74 %
22.10.2020 07:14 13,9 C 13,3 C 12,2 C 93 % 1010,5 hPa 0,0 l/m 0 min 0 min 0 W/m 3,2 km/h (1 Bft) 97,83 %
22.10.2020 07:16 13,9 C 13,3 C 12,2 C 93 % 1010,6 hPa 0,0 l/m 0 min 0 min 0 W/m 0,0 km/h (0 Bft) 97,87 %
22.10.2020 07:18 13,9 C 13,3 C 12,2 C 93 % 1010,6 hPa 0,0 l/m 0 min 0 min 0 W/m 0,0 km/h (0 Bft) 97,87 %
22.10.2020 07:20 13,9 C 13,3 C 12,2 C 93 % 1010,7 hPa 0,0 l/m 0 min 0 min 0 W/m 6,4 km/h (2 Bft) 97,87 %
22.10.2020 07:22 13,9 C 13,3 C 12,2 C 94 % 1010,6 hPa 0,0 l/m 0 min 0 min 0 W/m 3,2 km/h (1 Bft) 97,87 %
22.10.2020 07:24 13,9 C 13,3 C 12,2 C 94 % 1010,6 hPa 0,0 l/m 0 min 0 min 0 W/m 3,2 km/h (1 Bft) 97,83 %
22.10.2020 07:26 13,9 C 13,3 C 12,2 C 94 % 1010,7 hPa 0,0 l/m 0 min 0 min 0 W/m 3,2 km/h (1 Bft) 97,87 %
22.10.2020 07:28 14,0 C 13,9 C 12,2 C 94 % 1010,7 hPa 0,0 l/m 0 min 0 min 0 W/m 0,0 km/h (0 Bft) 97,87 %
22.10.2020 07:30 14,0 C 13,3 C 12,2 C 94 % 1010,7 hPa 0,0 l/m 0 min 0 min 0 W/m 0,0 km/h (0 Bft) 97,87 %
22.10.2020 07:32 14,0 C 13,3 C 12,2 C 94 % 1010,6 hPa 0,0 l/m 0 min 0 min 0 W/m 0,0 km/h (0 Bft) 97,87 %
22.10.2020 07:34 14,0 C 13,3 C 12,2 C 94 % 1010,6 hPa 0,0 l/m 0 min 0 min 0 W/m 0,0 km/h (0 Bft) 97,87 %
22.10.2020 07:36 14,0 C 13,3 C 12,2 C 94 % 1010,7 hPa 0,0 l/m 0 min 0 min 0 W/m 0,0 km/h (0 Bft) 97,83 %
22.10.2020 07:38 14,0 C 13,3 C 12,2 C 94 % 1010,7 hPa 0,0 l/m 0 min 0 min 0 W/m 3,2 km/h (1 Bft) 95,74 %
22.10.2020 07:40 14,0 C 13,3 C 12,2 C 94 % 1010,7 hPa 0,0 l/m 0 min 0 min 0 W/m 0,0 km/h (0 Bft) 97,87 %
22.10.2020 07:42 14,0 C 13,3 C 12,2 C 94 % 1010,6 hPa 0,0 l/m 0 min 0 min 0 W/m 0,0 km/h (0 Bft) 97,87 %
22.10.2020 07:44 14,0 C 13,3 C 12,2 C 94 % 1010,6 hPa 0,0 l/m 0 min 0 min 0 W/m 0,0 km/h (0 Bft) 97,87 %
22.10.2020 07:46 14,0 C 13,3 C 12,2 C 94 % 1010,6 hPa 0,0 l/m 0 min 0 min 0 W/m 0,0 km/h (0 Bft) 98,08 %
22.10.2020 07:48 14,0 C 13,3 C 12,2 C 94 % 1010,7 hPa 0,0 l/m 0 min 0 min 0 W/m 6,4 km/h (2 Bft) 97,56 %
22.10.2020 07:50 14,1 C 13,9 C 12,2 C 94 % 1010,7 hPa 0,0 l/m 0 min 0 min 0 W/m 0,0 km/h (0 Bft) 97,87 %
22.10.2020 07:52 14,1 C 13,9 C 12,2 C 94 % 1010,7 hPa 0,0 l/m 0 min 0 min 0 W/m 0,0 km/h (0 Bft) 95,74 %
22.10.2020 07:54 14,1 C 13,9 C 12,2 C 94 % 1010,7 hPa 0,0 l/m 0 min 0 min 0 W/m 12,9 km/h (3 Bft) 97,87 %
22.10.2020 07:56 14,1 C 13,9 C 12,2 C 94 % 1010,7 hPa 0,0 l/m 0 min 0 min 0 W/m 12,9 km/h (3 Bft) 95,74 %
22.10.2020 07:58 14,2 C 13,9 C 12,2 C 94 % 1010,6 hPa 0,0 l/m 0 min 0 min 0 W/m 3,2 km/h (1 Bft) 95,74 %
22.10.2020 08:00 14,2 C 13,9 C 12,2 C 94 % 1010,6 hPa 0,0 l/m 0 min 0 min 0 W/m 3,2 km/h (1 Bft) 95,65 %
22.10.2020 08:02 14,2 C 13,9 C 12,2 C 94 % 1010,5 hPa 0,0 l/m 0 min 0 min 0 W/m 3,2 km/h (1 Bft) 100,00 %
22.10.2020 08:04 14,2 C 13,9 C 12,2 C 94 % 1010,4 hPa 0,0 l/m 0 min 0 min 0 W/m 0,0 km/h (0 Bft) 93,62 %
22.10.2020 08:06 14,2 C 13,9 C 12,2 C 94 % 1010,5 hPa 0,0 l/m 0 min 0 min 0 W/m 0,0 km/h (0 Bft) 97,87 %
22.10.2020 08:08 14,2 C 13,9 C 12,2 C 94 % 1010,6 hPa 0,0 l/m 0 min 0 min 0 W/m 0,0 km/h (0 Bft) 97,87 %
22.10.2020 08:10 14,2 C 13,9 C 12,2 C 94 % 1010,7 hPa 0,0 l/m 0 min 0 min 0 W/m 0,0 km/h (0 Bft) 97,87 %
22.10.2020 08:12 14,2 C 13,9 C 12,2 C 94 % 1010,8 hPa 0,0 l/m 0 min 0 min 0 W/m 0,0 km/h (0 Bft) 97,83 %
22.10.2020 08:14 14,2 C 13,9 C 12,2 C 94 % 1010,7 hPa 0,0 l/m 0 min 0 min 0 W/m 0,0 km/h (0 Bft) 97,87 %
22.10.2020 08:16 14,2 C 13,9 C 12,2 C 94 % 1010,7 hPa 0,0 l/m 0 min 0 min 0 W/m 0,0 km/h (0 Bft) 100,00 %
22.10.2020 08:18 14,2 C 13,9 C 12,2 C 94 % 1010,8 hPa 0,0 l/m 0 min 0 min 0 W/m 0,0 km/h (0 Bft) 100,00 %
22.10.2020 08:20 14,2 C 13,9 C 12,2 C 94 % 1010,8 hPa 0,0 l/m 0 min 0 min 0 W/m 3,2 km/h (1 Bft) 97,83 %
22.10.2020 08:22 14,2 C 13,9 C 12,2 C 94 % 1010,8 hPa 0,0 l/m 0 min 0 min 0 W/m 0,0 km/h (0 Bft) 97,83 %
22.10.2020 08:24 14,2 C 13,9 C 12,2 C 94 % 1010,9 hPa 0,0 l/m 0 min 0 min 0 W/m 0,0 km/h (0 Bft) 100,00 %
22.10.2020 08:26 14,2 C 13,9 C 12,8 C 94 % 1011,0 hPa 0,0 l/m 0 min 0 min 0 W/m 0,0 km/h (0 Bft) 97,87 %
22.10.2020 08:28 14,2 C 13,9 C 12,8 C 94 % 1011,1 hPa 0,0 l/m 0 min 0 min 0 W/m 0,0 km/h (0 Bft) 97,96 %
22.10.2020 08:30 14,3 C 13,9 C 12,8 C 94 % 1011,1 hPa 0,0 l/m 0 min 0 min 3 W/m 0,0 km/h (0 Bft) 95,74 %
22.10.2020 08:32 14,3 C 13,9 C 12,8 C 94 % 1011,1 hPa 0,0 l/m 0 min 0 min 5 W/m 0,0 km/h (0 Bft) 97,92 %
22.10.2020 08:34 14,3 C 13,9 C 12,8 C 94 % 1011,1 hPa 0,0 l/m 0 min 0 min 6 W/m 0,0 km/h (0 Bft) 97,83 %
22.10.2020 08:36 14,3 C 13,9 C 12,8 C 94 % 1011,0 hPa 0,0 l/m 0 min 0 min 7 W/m 0,0 km/h (0 Bft) 95,74 %
22.10.2020 08:38 14,4 C 13,9 C 12,8 C 94 % 1011,0 hPa 0,0 l/m 0 min 0 min 7 W/m 0,0 km/h (0 Bft) 97,87 %
22.10.2020 08:40 14,4 C 13,9 C 12,8 C 94 % 1011,0 hPa 0,0 l/m 0 min 0 min 7 W/m 0,0 km/h (0 Bft) 97,87 %
22.10.2020 08:42 14,4 C 13,9 C 12,8 C 94 % 1010,9 hPa 0,0 l/m 0 min 0 min 7 W/m 0,0 km/h (0 Bft) 97,87 %
22.10.2020 08:44 14,4 C 13,9 C 12,8 C 94 % 1010,9 hPa 0,0 l/m 0 min 0 min 7 W/m 0,0 km/h (0 Bft) 97,87 %
22.10.2020 08:46 14,4 C 13,9 C 12,8 C 94 % 1011,0 hPa 0,0 l/m 0 min 0 min 8 W/m 0,0 km/h (0 Bft) 95,65 %
22.10.2020 08:48 14,4 C 13,9 C 12,8 C 94 % 1011,0 hPa 0,0 l/m 0 min 0 min 9 W/m 3,2 km/h (1 Bft) 97,87 %
22.10.2020 08:50 14,4 C 13,9 C 12,8 C 94 % 1011,1 hPa 0,0 l/m 0 min 0 min 8 W/m 0,0 km/h (0 Bft) 97,87 %
22.10.2020 08:52 14,4 C 13,9 C 12,8 C 94 % 1011,2 hPa 0,0 l/m 0 min 0 min 6 W/m 0,0 km/h (0 Bft) 93,62 %
22.10.2020 08:54 14,5 C 13,9 C 12,8 C 94 % 1011,2 hPa 0,0 l/m 0 min 0 min 6 W/m 3,2 km/h (1 Bft) 95,74 %
22.10.2020 08:56 14,5 C 13,9 C 12,8 C 93 % 1011,3 hPa 0,0 l/m 0 min 0 min 7 W/m 0,0 km/h (0 Bft) 95,74 %
22.10.2020 08:58 14,5 C 13,9 C 12,8 C 93 % 1011,3 hPa 0,0 l/m 0 min 0 min 8 W/m 3,2 km/h (1 Bft) 95,65 %
22.10.2020 09:00 14,5 C 13,9 C 12,8 C 93 % 1011,3 hPa 0,0 l/m 0 min 0 min 12 W/m 0,0 km/h (0 Bft) 95,74 %
22.10.2020 09:02 14,5 C 13,9 C 12,8 C 93 % 1011,3 hPa 0,0 l/m 0 min 0 min 15 W/m 0,0 km/h (0 Bft) 93,62 %
22.10.2020 09:04 14,5 C 13,9 C 12,8 C 93 % 1011,4 hPa 0,0 l/m 0 min 0 min 18 W/m 0,0 km/h (0 Bft) 92,45 %
22.10.2020 09:06 14,5 C 13,9 C 12,8 C 93 % 1011,4 hPa 0,0 l/m 0 min 2 min 21 W/m 0,0 km/h (0 Bft) 95,65 %
22.10.2020 09:08 14,5 C 13,9 C 12,8 C 93 % 1011,6 hPa 0,0 l/m 0 min 0 min 24 W/m 0,0 km/h (0 Bft) 95,74 %
22.10.2020 09:10 14,5 C 14,4 C 12,8 C 93 % 1011,6 hPa 0,0 l/m 0 min 0 min 32 W/m 0,0 km/h (0 Bft) 95,74 %
22.10.2020 09:12 14,5 C 14,4 C 12,8 C 93 % 1011,6 hPa 0,0 l/m 0 min 0 min 41 W/m 0,0 km/h (0 Bft) 95,74 %
22.10.2020 09:14 14,5 C 14,4 C 12,8 C 94 % 1011,7 hPa 0,0 l/m 0 min 0 min 45 W/m 0,0 km/h (0 Bft) 95,74 %
22.10.2020 09:16 14,6 C 14,4 C 12,8 C 94 % 1011,7 hPa 0,0 l/m 0 min 0 min 37 W/m 3,2 km/h (1 Bft) 95,74 %
22.10.2020 09:18 14,6 C 14,4 C 12,8 C 93 % 1011,8 hPa 0,0 l/m 0 min 0 min 32 W/m 0,0 km/h (0 Bft) 95,74 %
22.10.2020 09:20 14,6 C 14,4 C 12,8 C 93 % 1011,8 hPa 0,0 l/m 0 min 0 min 27 W/m 0,0 km/h (0 Bft) 97,83 %
22.10.2020 09:22 14,6 C 14,4 C 12,8 C 93 % 1011,8 hPa 0,0 l/m 0 min 0 min 30 W/m 3,2 km/h (1 Bft) 93,62 %
22.10.2020 09:24 14,6 C 14,4 C 13,4 C 93 % 1011,8 hPa 0,0 l/m 0 min 0 min 30 W/m 12,9 km/h (3 Bft) 97,87 %
22.10.2020 09:26 14,6 C 14,4 C 13,4 C 93 % 1011,8 hPa 0,0 l/m 0 min 0 min 27 W/m 0,0 km/h (0 Bft) 97,87 %
22.10.2020 09:28 14,7 C 14,4 C 13,4 C 93 % 1011,9 hPa 0,0 l/m 0 min 0 min 37 W/m 0,0 km/h (0 Bft) 97,87 %
22.10.2020 09:30 14,7 C 14,4 C 13,4 C 93 % 1011,9 hPa 0,0 l/m 0 min 0 min 43 W/m 0,0 km/h (0 Bft) 97,78 %
22.10.2020 09:32 14,7 C 15,0 C 13,4 C 93 % 1011,8 hPa 0,0 l/m 0 min 0 min 59 W/m 0,0 km/h (0 Bft) 97,87 %
22.10.2020 09:34 14,8 C 15,0 C 13,4 C 93 % 1011,8 hPa 0,0 l/m 0 min 0 min 84 W/m 0,0 km/h (0 Bft) 97,87 %
22.10.2020 09:36 14,8 C 15,0 C 13,4 C 93 % 1011,8 hPa 0,0 l/m 0 min 0 min 72 W/m 0,0 km/h (0 Bft) 97,87 %
22.10.2020 09:38 14,8 C 15,0 C 13,4 C 93 % 1011,9 hPa 0,0 l/m 0 min 0 min 60 W/m 0,0 km/h (0 Bft) 100,00 %
22.10.2020 09:40 14,8 C 15,0 C 13,4 C 93 % 1011,9 hPa 0,0 l/m 0 min 0 min 54 W/m 3,2 km/h (1 Bft) 97,87 %
22.10.2020 09:42 14,9 C 15,0 C 13,4 C 93 % 1011,9 hPa 0,0 l/m 0 min 0 min 57 W/m 0,0 km/h (0 Bft) 100,00 %
22.10.2020 09:44 14,9 C 15,0 C 13,4 C 93 % 1012,0 hPa 0,0 l/m 0 min 0 min 59 W/m 0,0 km/h (0 Bft) 95,74 %
22.10.2020 09:46 14,9 C 15,0 C 13,4 C 93 % 1012,1 hPa 0,0 l/m 0 min 0 min 66 W/m 0,0 km/h (0 Bft) 100,00 %
22.10.2020 09:48 14,9 C 15,0 C 13,4 C 93 % 1012,1 hPa 0,0 l/m 0 min 0 min 65 W/m 0,0 km/h (0 Bft) 100,00 %
22.10.2020 09:50 15,0 C 15,6 C 13,9 C 93 % 1012,2 hPa 0,0 l/m 0 min 0 min 69 W/m 0,0 km/h (0 Bft) 100,00 %
22.10.2020 09:52 15,0 C 15,6 C 13,9 C 93 % 1012,1 hPa 0,0 l/m 0 min 0 min 81 W/m 0,0 km/h (0 Bft) 100,00 %
22.10.2020 09:54 15,0 C 15,6 C 13,9 C 93 % 1012,1 hPa 0,0 l/m 0 min 0 min 109 W/m 0,0 km/h (0 Bft) 97,83 %
22.10.2020 09:56 15,0 C 16,1 C 13,9 C 93 % 1012,1 hPa 0,0 l/m 2 min 0 min 124 W/m 0,0 km/h (0 Bft) 100,00 %
22.10.2020 09:58 15,1 C 15,6 C 13,9 C 93 % 1012,2 hPa 0,0 l/m 0 min 0 min 84 W/m 0,0 km/h (0 Bft) 100,00 %
22.10.2020 10:00 15,1 C 15,6 C 13,9 C 93 % 1012,2 hPa 0,0 l/m 0 min 0 min 71 W/m 0,0 km/h (0 Bft) 100,00 %
22.10.2020 10:02 15,2 C 15,6 C 13,9 C 93 % 1012,2 hPa 0,0 l/m 0 min 0 min 72 W/m 9,7 km/h (2 Bft) 97,87 %
22.10.2020 10:04 15,2 C 16,1 C 13,9 C 93 % 1012,2 hPa 0,0 l/m 0 min 0 min 98 W/m 3,2 km/h (1 Bft) 97,87 %
22.10.2020 10:06 15,3 C 16,1 C 13,9 C 93 % 1012,3 hPa 0,0 l/m 0 min 0 min 114 W/m 0,0 km/h (0 Bft) 100,00 %
22.10.2020 10:08 15,3 C 16,7 C 13,9 C 93 % 1012,3 hPa 0,0 l/m 2 min 0 min 156 W/m 12,9 km/h (3 Bft) 100,00 %
22.10.2020 10:10 15,4 C 16,7 C 14,5 C 93 % 1012,3 hPa 0,0 l/m 2 min 0 min 168 W/m 3,2 km/h (1 Bft) 100,00 %
22.10.2020 10:12 15,4 C 16,7 C 14,5 C 93 % 1012,3 hPa 0,0 l/m 0 min 0 min 114 W/m 22,5 km/h (4 Bft) 97,87 %
22.10.2020 10:14 15,4 C 16,7 C 14,5 C 93 % 1012,4 hPa 0,0 l/m 0 min 0 min 124 W/m 19,3 km/h (3 Bft) 100,00 %
22.10.2020 10:16 15,5 C 16,7 C 14,5 C 93 % 1012,5 hPa 0,0 l/m 0 min 0 min 123 W/m 16,1 km/h (3 Bft) 97,83 %
22.10.2020 10:18 15,6 C 16,7 C 14,5 C 93 % 1012,5 hPa 0,0 l/m 0 min 0 min 114 W/m 16,1 km/h (3 Bft) 100,00 %
22.10.2020 10:20 15,6 C 16,1 C 14,5 C 93 % 1012,5 hPa 0,0 l/m 0 min 0 min 86 W/m 16,1 km/h (3 Bft) 100,00 %
22.10.2020 10:22 15,6 C 16,1 C 14,5 C 93 % 1012,5 hPa 0,0 l/m 0 min 0 min 84 W/m 19,3 km/h (3 Bft) 100,00 %
22.10.2020 10:24 15,8 C 16,1 C 14,5 C 92 % 1012,5 hPa 0,0 l/m 0 min 0 min 85 W/m 19,3 km/h (3 Bft) 100,00 %
22.10.2020 10:26 15,8 C 16,1 C 14,5 C 92 % 1012,6 hPa 0,0 l/m 0 min 0 min 73 W/m 12,9 km/h (3 Bft) 100,00 %
22.10.2020 10:28 15,9 C 16,1 C 14,5 C 92 % 1012,6 hPa 0,0 l/m 0 min 0 min 62 W/m 12,9 km/h (3 Bft) 100,00 %
22.10.2020 10:30 16,0 C 16,1 C 14,5 C 92 % 1012,6 hPa 0,0 l/m 0 min 0 min 71 W/m 25,7 km/h (4 Bft) 100,00 %
22.10.2020 10:32 16,0 C 16,1 C 15,0 C 91 % 1012,6 hPa 0,0 l/m 0 min 0 min 85 W/m 22,5 km/h (4 Bft) 100,00 %
22.10.2020 10:34 16,1 C 16,7 C 15,0 C 91 % 1012,5 hPa 0,0 l/m 0 min 0 min 106 W/m 25,7 km/h (4 Bft) 100,00 %
22.10.2020 10:36 16,1 C 16,7 C 15,0 C 91 % 1012,6 hPa 0,0 l/m 0 min 0 min 99 W/m 16,1 km/h (3 Bft) 100,00 %
22.10.2020 10:38 16,1 C 16,7 C 15,0 C 91 % 1012,6 hPa 0,0 l/m 0 min 0 min 99 W/m 19,3 km/h (3 Bft) 95,74 %
22.10.2020 10:40 16,2 C 16,7 C 15,0 C 90 % 1012,5 hPa 0,0 l/m 0 min 0 min 98 W/m 19,3 km/h (3 Bft) 97,87 %
22.10.2020 10:42 16,3 C 16,7 C 15,0 C 91 % 1012,6 hPa 0,0 l/m 0 min 0 min 92 W/m 12,9 km/h (3 Bft) 93,62 %
22.10.2020 10:44 16,3 C 16,7 C 15,0 C 90 % 1012,6 hPa 0,0 l/m 0 min 0 min 78 W/m 0,0 km/h (0 Bft) 97,83 %
22.10.2020 10:46 16,3 C 16,1 C 15,0 C 90 % 1012,6 hPa 0,0 l/m 0 min 0 min 55 W/m 12,9 km/h (3 Bft) 97,87 %
22.10.2020 10:48 16,4 C 16,1 C 15,0 C 90 % 1012,7 hPa 0,0 l/m 0 min 0 min 49 W/m 6,4 km/h (2 Bft) 97,87 %
22.10.2020 10:51 16,4 C 15,6 C 14,5 C 90 % 1012,7 hPa 0,0 l/m 0 min 0 min 56 W/m 16,1 km/h (3 Bft) 98,57 %
22.10.2020 10:52 16,4 C 15,0 C 14,5 C 90 % 1012,6 hPa 0,0 l/m 0 min 1 min 76 W/m 19,3 km/h (3 Bft) 95,83 %
22.10.2020 10:56 16,5 C 15,0 C 13,9 C 90 % 1012,6 hPa 0,0 l/m 0 min 0 min 76 W/m 6,4 km/h (2 Bft) 97,73 %
22.10.2020 10:58 16,5 C 15,0 C 13,9 C 90 % 1012,6 hPa 0,0 l/m 0 min 0 min 67 W/m 12,9 km/h (3 Bft) 97,37 %
22.10.2020 11:00 16,5 C 15,0 C 13,9 C 90 % 1012,7 hPa 0,0 l/m 0 min 0 min 43 W/m 0,0 km/h (0 Bft) 97,87 %
22.10.2020 11:02 16,5 C 15,0 C 13,9 C 90 % 1012,7 hPa 0,0 l/m 0 min 0 min 41 W/m 0,0 km/h (0 Bft) 97,87 %
22.10.2020 11:04 16,5 C 15,0 C 13,9 C 90 % 1012,7 hPa 0,0 l/m 0 min 0 min 47 W/m 12,9 km/h (3 Bft) 97,87 %
22.10.2020 11:06 16,5 C 15,6 C 13,9 C 90 % 1012,7 hPa 0,0 l/m 0 min 0 min 48 W/m 3,2 km/h (1 Bft) 96,36 %
22.10.2020 11:08 16,5 C 15,6 C 13,9 C 90 % 1012,6 hPa 0,0 l/m 0 min 0 min 52 W/m 0,0 km/h (0 Bft) 97,37 %
22.10.2020 11:10 16,5 C 15,6 C 13,9 C 90 % 1012,7 hPa 0,0 l/m 0 min 0 min 52 W/m 0,0 km/h (0 Bft) 97,87 %
22.10.2020 11:12 16,5 C 16,1 C 14,5 C 90 % 1012,7 hPa 0,0 l/m 0 min 0 min 59 W/m 3,2 km/h (1 Bft) 95,74 %
22.10.2020 11:14 16,5 C 16,1 C 14,5 C 90 % 1012,7 hPa 0,0 l/m 0 min 0 min 71 W/m 0,0 km/h (0 Bft) 97,87 %
22.10.2020 11:16 16,5 C 16,1 C 14,5 C 90 % 1012,7 hPa 0,0 l/m 0 min 0 min 90 W/m 3,2 km/h (1 Bft) 93,62 %
22.10.2020 11:18 16,5 C 16,1 C 14,5 C 90 % 1012,7 hPa 0,0 l/m 0 min 0 min 109 W/m 3,2 km/h (1 Bft) 95,65 %
22.10.2020 11:20 16,5 C 16,1 C 14,5 C 90 % 1012,7 hPa 0,0 l/m 0 min 0 min 113 W/m 6,4 km/h (2 Bft) 97,87 %
22.10.2020 11:22 16,5 C 16,7 C 14,5 C 90 % 1012,7 hPa 0,0 l/m 0 min 0 min 115 W/m 0,0 km/h (0 Bft) 97,87 %
22.10.2020 11:24 16,5 C 16,7 C 14,5 C 90 % 1012,7 hPa 0,0 l/m 0 min 0 min 97 W/m 12,9 km/h (3 Bft) 92,73 %
22.10.2020 11:26 16,5 C 16,7 C 15,0 C 90 % 1012,7 hPa 0,0 l/m 0 min 0 min 95 W/m 0,0 km/h (0 Bft) 92,11 %
22.10.2020 11:28 16,5 C 16,7 C 15,0 C 90 % 1012,6 hPa 0,0 l/m 0 min 0 min 60 W/m 0,0 km/h (0 Bft) 95,83 %
22.10.2020 11:30 16,5 C 16,1 C 14,5 C 90 % 1012,6 hPa 0,0 l/m 0 min 0 min 57 W/m 12,9 km/h (3 Bft) 95,65 %
22.10.2020 11:32 16,5 C 16,1 C 15,0 C 90 % 1012,6 hPa 0,0 l/m 0 min 0 min 69 W/m 0,0 km/h (0 Bft) 93,62 %
22.10.2020 11:34 16,5 C 16,7 C 14,5 C 90 % 1012,5 hPa 0,0 l/m 0 min 0 min 78 W/m 0,0 km/h (0 Bft) 94,64 %
22.10.2020 11:36 16,5 C 16,7 C 15,0 C 90 % 1012,6 hPa 0,0 l/m 0 min 0 min 91 W/m 12,9 km/h (3 Bft) 93,48 %
22.10.2020 11:38 16,5 C 16,7 C 15,0 C 90 % 1012,6 hPa 0,0 l/m 0 min 0 min 76 W/m 12,9 km/h (3 Bft) 95,74 %
22.10.2020 11:40 16,5 C 16,7 C 15,0 C 90 % 1012,6 hPa 0,0 l/m 0 min 0 min 73 W/m 0,0 km/h (0 Bft) 94,74 %
22.10.2020 11:42 16,5 C 16,7 C 15,0 C 89 % 1012,5 hPa 0,0 l/m 0 min 0 min 72 W/m 16,1 km/h (3 Bft) 95,74 %
22.10.2020 11:44 16,6 C 16,7 C 15,0 C 89 % 1012,5 hPa 0,0 l/m 0 min 0 min 77 W/m 0,0 km/h (0 Bft) 91,49 %
22.10.2020 11:46 16,6 C 16,7 C 15,0 C 89 % 1012,6 hPa 0,0 l/m 0 min 0 min 74 W/m 12,9 km/h (3 Bft) 95,74 %
22.10.2020 11:48 16,6 C 16,7 C 15,0 C 89 % 1012,5 hPa 0,0 l/m 0 min 0 min 72 W/m 12,9 km/h (3 Bft) 93,62 %
22.10.2020 11:50 16,6 C 16,7 C 15,0 C 89 % 1012,5 hPa 0,0 l/m 0 min 0 min 69 W/m 0,0 km/h (0 Bft) 95,74 %
22.10.2020 11:52 16,6 C 16,7 C 15,0 C 89 % 1012,6 hPa 0,0 l/m 0 min 0 min 67 W/m 16,1 km/h (3 Bft) 95,74 %
22.10.2020 11:54 16,6 C 16,7 C 15,0 C 88 % 1012,6 hPa 0,0 l/m 0 min 0 min 68 W/m 22,5 km/h (4 Bft) 93,48 %
22.10.2020 11:56 16,6 C 16,7 C 15,0 C 88 % 1012,6 hPa 0,0 l/m 0 min 0 min 67 W/m 12,9 km/h (3 Bft) 93,62 %
22.10.2020 11:58 16,6 C 16,7 C 15,0 C 88 % 1012,6 hPa 0,0 l/m 0 min 0 min 59 W/m 19,3 km/h (3 Bft) 94,55 %
22.10.2020 12:00 16,6 C 16,7 C 15,6 C 88 % 1012,6 hPa 0,0 l/m 0 min 0 min 56 W/m 25,7 km/h (4 Bft) 95,74 %
22.10.2020 12:02 16,6 C 16,7 C 15,6 C 87 % 1012,6 hPa 0,0 l/m 0 min 0 min 70 W/m 19,3 km/h (3 Bft) 95,83 %
22.10.2020 12:04 16,7 C 16,7 C 15,6 C 87 % 1012,6 hPa 0,0 l/m 0 min 0 min 77 W/m 16,1 km/h (3 Bft) 95,74 %
22.10.2020 12:08 16,8 C 16,7 C 15,6 C 87 % 1012,6 hPa 0,0 l/m 0 min 0 min 89 W/m 22,5 km/h (4 Bft) 96,43 %
22.10.2020 12:10 16,8 C 16,7 C 15,6 C 87 % 1012,5 hPa 0,0 l/m 0 min 0 min 126 W/m 16,1 km/h (3 Bft) 97,87 %
22.10.2020 12:12 16,8 C 17,2 C 15,6 C 87 % 1012,5 hPa 0,0 l/m 0 min 0 min 142 W/m 12,9 km/h (3 Bft) 96,30 %
22.10.2020 12:14 16,8 C 17,2 C 15,6 C 87 % 1012,5 hPa 0,0 l/m 0 min 0 min 130 W/m 16,1 km/h (3 Bft) 97,87 %
22.10.2020 12:16 16,9 C 17,2 C 15,6 C 87 % 1012,5 hPa 0,0 l/m 0 min 0 min 122 W/m 6,4 km/h (2 Bft) 93,62 %
22.10.2020 12:18 16,9 C 17,2 C 15,6 C 87 % 1012,6 hPa 0,0 l/m 0 min 0 min 124 W/m 0,0 km/h (0 Bft) 97,87 %
22.10.2020 12:20 16,9 C 17,2 C 15,6 C 87 % 1012,6 hPa 0,0 l/m 0 min 0 min 131 W/m 0,0 km/h (0 Bft) 97,37 %
22.10.2020 12:22 17,0 C 17,8 C 15,6 C 87 % 1012,6 hPa 0,0 l/m 0 min 0 min 135 W/m 0,0 km/h (0 Bft) 95,74 %
22.10.2020 12:24 17,0 C 17,8 C 16,1 C 87 % 1012,5 hPa 0,0 l/m 0 min 0 min 178 W/m 0,0 km/h (0 Bft) 97,83 %
22.10.2020 12:26 17,0 C 18,3 C 16,1 C 87 % 1012,5 hPa 0,0 l/m 0 min 0 min 206 W/m 3,2 km/h (1 Bft) 95,74 %
22.10.2020 12:28 17,1 C 18,3 C 16,1 C 87 % 1012,5 hPa 0,0 l/m 0 min 0 min 189 W/m 0,0 km/h (0 Bft) 95,83 %
22.10.2020 12:30 17,2 C 18,9 C 16,1 C 87 % 1012,5 hPa 0,0 l/m 0 min 0 min 192 W/m 0,0 km/h (0 Bft) 100,00 %
22.10.2020 12:32 17,3 C 18,9 C 16,1 C 87 % 1012,5 hPa 0,0 l/m 0 min 0 min 186 W/m 0,0 km/h (0 Bft) 100,00 %
22.10.2020 12:34 17,3 C 18,3 C 16,1 C 86 % 1012,6 hPa 0,0 l/m 0 min 0 min 205 W/m 19,3 km/h (3 Bft) 100,00 %
22.10.2020 12:36 17,4 C 18,9 C 16,1 C 86 % 1012,5 hPa 0,0 l/m 2 min 0 min 232 W/m 0,0 km/h (0 Bft) 100,00 %
22.10.2020 12:38 17,4 C 18,9 C 16,7 C 86 % 1012,5 hPa 0,0 l/m 2 min 0 min 298 W/m 16,1 km/h (3 Bft) 100,00 %
22.10.2020 12:40 17,5 C 19,4 C 16,7 C 85 % 1012,5 hPa 0,0 l/m 2 min 0 min 330 W/m 16,1 km/h (3 Bft) 100,00 %
22.10.2020 12:42 17,5 C 19,4 C 16,7 C 85 % 1012,5 hPa 0,0 l/m 2 min 0 min 283 W/m 3,2 km/h (1 Bft) 97,87 %
22.10.2020 12:44 17,6 C 18,9 C 16,7 C 85 % 1012,5 hPa 0,0 l/m 0 min 0 min 211 W/m 12,9 km/h (3 Bft) 97,87 %
22.10.2020 12:46 17,7 C 18,9 C 16,7 C 85 % 1012,5 hPa 0,0 l/m 0 min 0 min 220 W/m 16,1 km/h (3 Bft) 97,87 %
22.10.2020 12:48 17,8 C 18,3 C 16,7 C 85 % 1012,5 hPa 0,0 l/m 0 min 0 min 213 W/m 16,1 km/h (3 Bft) 100,00 %
22.10.2020 12:50 17,8 C 18,3 C 16,7 C 84 % 1012,4 hPa 0,0 l/m 0 min 0 min 207 W/m 3,2 km/h (1 Bft) 100,00 %
22.10.2020 12:52 17,9 C 18,3 C 16,7 C 84 % 1012,4 hPa 0,0 l/m 0 min 0 min 190 W/m 0,0 km/h (0 Bft) 100,00 %
22.10.2020 12:54 17,9 C 18,3 C 16,7 C 84 % 1012,3 hPa 0,0 l/m 0 min 0 min 179 W/m 0,0 km/h (0 Bft) 100,00 %
22.10.2020 12:56 18,0 C 18,9 C 16,7 C 84 % 1012,3 hPa 0,0 l/m 0 min 0 min 216 W/m 16,1 km/h (3 Bft) 100,00 %
22.10.2020 12:58 18,0 C 18,3 C 16,7 C 84 % 1012,4 hPa 0,0 l/m 0 min 0 min 209 W/m 19,3 km/h (3 Bft) 100,00 %
22.10.2020 13:00 18,0 C 18,3 C 16,7 C 83 % 1012,4 hPa 0,0 l/m 0 min 0 min 184 W/m 3,2 km/h (1 Bft) 100,00 %
22.10.2020 13:02 18,0 C 18,3 C 16,7 C 83 % 1012,4 hPa 0,0 l/m 0 min 0 min 189 W/m 0,0 km/h (0 Bft) 100,00 %
22.10.2020 13:04 18,1 C 18,3 C 16,7 C 83 % 1012,3 hPa 0,0 l/m 0 min 0 min 192 W/m 16,1 km/h (3 Bft) 97,87 %
22.10.2020 13:06 18,1 C 18,9 C 16,7 C 83 % 1012,3 hPa 0,0 l/m 0 min 0 min 186 W/m 12,9 km/h (3 Bft) 100,00 %
22.10.2020 13:08 18,1 C 18,9 C 16,7 C 83 % 1012,2 hPa 0,0 l/m 0 min 0 min 194 W/m 0,0 km/h (0 Bft) 100,00 %
22.10.2020 13:10 18,2 C 18,9 C 16,7 C 83 % 1012,2 hPa 0,0 l/m 0 min 0 min 176 W/m 6,4 km/h (2 Bft) 100,00 %
22.10.2020 13:12 18,2 C 18,9 C 16,7 C 83 % 1012,2 hPa 0,0 l/m 0 min 0 min 166 W/m 0,0 km/h (0 Bft) 100,00 %
22.10.2020 13:14 18,3 C 18,9 C 16,7 C 84 % 1012,2 hPa 0,0 l/m 0 min 0 min 142 W/m 3,2 km/h (1 Bft) 100,00 %
22.10.2020 13:16 18,3 C 18,3 C 16,7 C 84 % 1012,2 hPa 0,0 l/m 0 min 0 min 142 W/m 0,0 km/h (0 Bft) 100,00 %
22.10.2020 13:18 18,3 C 18,3 C 16,7 C 83 % 1012,1 hPa 0,0 l/m 0 min 0 min 150 W/m 0,0 km/h (0 Bft) 100,00 %
22.10.2020 13:20 18,3 C 18,3 C 16,7 C 83 % 1012,1 hPa 0,0 l/m 0 min 0 min 122 W/m 19,3 km/h (3 Bft) 100,00 %
22.10.2020 13:22 18,3 C 18,3 C 16,7 C 83 % 1012,1 hPa 0,0 l/m 0 min 0 min 127 W/m 12,9 km/h (3 Bft) 100,00 %
22.10.2020 13:24 18,3 C 18,3 C 16,7 C 83 % 1012,1 hPa 0,0 l/m 0 min 0 min 110 W/m 12,9 km/h (3 Bft) 100,00 %
22.10.2020 13:26 18,4 C 18,3 C 16,7 C 83 % 1012,0 hPa 0,0 l/m 0 min 0 min 121 W/m 6,4 km/h (2 Bft) 100,00 %
22.10.2020 13:28 18,4 C 17,8 C 16,7 C 83 % 1012,0 hPa 0,0 l/m 0 min 0 min 124 W/m 0,0 km/h (0 Bft) 100,00 %
22.10.2020 13:30 18,4 C 17,8 C 16,7 C 83 % 1012,1 hPa 0,0 l/m 0 min 0 min 128 W/m 0,0 km/h (0 Bft) 100,00 %
22.10.2020 13:32 18,3 C 17,8 C 16,7 C 82 % 1012,0 hPa 0,0 l/m 0 min 0 min 130 W/m 22,5 km/h (4 Bft) 100,00 %
22.10.2020 13:34 18,4 C 18,3 C 16,7 C 82 % 1012,0 hPa 0,0 l/m 0 min 0 min 154 W/m 0,0 km/h (0 Bft) 100,00 %
22.10.2020 13:36 18,4 C 18,3 C 16,7 C 83 % 1012,0 hPa 0,0 l/m 0 min 0 min 188 W/m 0,0 km/h (0 Bft) 100,00 %
22.10.2020 13:38 18,4 C 18,9 C 16,7 C 83 % 1012,0 hPa 0,0 l/m 0 min 0 min 225 W/m 9,7 km/h (2 Bft) 100,00 %
22.10.2020 13:40 18,4 C 19,4 C 16,7 C 83 % 1012,0 hPa 0,0 l/m 2 min 0 min 275 W/m 22,5 km/h (4 Bft) 100,00 %
22.10.2020 13:42 18,4 C 18,9 C 17,2 C 83 % 1012,0 hPa 0,0 l/m 2 min 0 min 229 W/m 16,1 km/h (3 Bft) 100,00 %
22.10.2020 13:44 18,4 C 18,9 C 17,2 C 83 % 1012,0 hPa 0,0 l/m 0 min 0 min 185 W/m 0,0 km/h (0 Bft) 97,87 %
22.10.2020 13:46 18,5 C 18,9 C 17,2 C 83 % 1012,0 hPa 0,0 l/m 0 min 0 min 159 W/m 0,0 km/h (0 Bft) 97,87 %
22.10.2020 13:48 18,5 C 18,9 C 17,2 C 83 % 1012,0 hPa 0,0 l/m 0 min 0 min 165 W/m 16,1 km/h (3 Bft) 97,87 %
22.10.2020 13:50 18,5 C 18,9 C 16,7 C 83 % 1012,0 hPa 0,0 l/m 0 min 0 min 210 W/m 6,4 km/h (2 Bft) 97,67 %
22.10.2020 13:52 18,5 C 19,4 C 17,2 C 83 % 1011,9 hPa 0,0 l/m 0 min 0 min 200 W/m 0,0 km/h (0 Bft) 98,00 %
22.10.2020 13:54 18,6 C 19,4 C 17,2 C 83 % 1011,9 hPa 0,0 l/m 2 min 0 min 267 W/m 19,3 km/h (3 Bft) 95,74 %
22.10.2020 13:56 18,6 C 19,4 C 17,2 C 83 % 1011,9 hPa 0,0 l/m 2 min 0 min 233 W/m 19,3 km/h (3 Bft) 95,74 %
22.10.2020 13:58 18,6 C 18,9 C 17,2 C 82 % 1011,9 hPa 0,0 l/m 0 min 0 min 181 W/m 16,1 km/h (3 Bft) 95,74 %
22.10.2020 14:00 18,7 C 19,4 C 17,2 C 82 % 1011,8 hPa 0,0 l/m 0 min 0 min 183 W/m 9,7 km/h (2 Bft) 95,65 %
22.10.2020 14:02 18,7 C 19,4 C 16,7 C 82 % 1011,8 hPa 0,0 l/m 0 min 0 min 174 W/m 6,4 km/h (2 Bft) 93,62 %
22.10.2020 14:04 18,8 C 19,4 C 16,7 C 82 % 1011,8 hPa 0,0 l/m 0 min 0 min 176 W/m 3,2 km/h (1 Bft) 93,62 %
22.10.2020 14:06 18,8 C 18,9 C 16,7 C 83 % 1011,8 hPa 0,0 l/m 0 min 0 min 140 W/m 12,9 km/h (3 Bft) 95,45 %
22.10.2020 14:08 18,8 C 18,9 C 16,7 C 82 % 1011,8 hPa 0,0 l/m 0 min 0 min 125 W/m 0,0 km/h (0 Bft) 95,65 %
22.10.2020 14:10 18,8 C 18,9 C 16,7 C 82 % 1011,7 hPa 0,0 l/m 0 min 0 min 134 W/m 0,0 km/h (0 Bft) 94,00 %
22.10.2020 14:12 18,8 C 18,9 C 16,7 C 82 % 1011,7 hPa 0,0 l/m 0 min 0 min 103 W/m 3,2 km/h (1 Bft) 95,74 %
22.10.2020 14:14 18,8 C 18,3 C 16,7 C 82 % 1011,8 hPa 0,0 l/m 0 min 0 min 88 W/m 19,3 km/h (3 Bft) 95,74 %
22.10.2020 14:16 18,8 C 18,3 C 16,7 C 81 % 1011,7 hPa 0,0 l/m 0 min 0 min 96 W/m 16,1 km/h (3 Bft) 95,74 %
22.10.2020 14:18 18,8 C 18,3 C 16,7 C 81 % 1011,8 hPa 0,0 l/m 0 min 0 min 105 W/m 25,7 km/h (4 Bft) 93,62 %
22.10.2020 14:20 18,8 C 18,3 C 16,7 C 81 % 1011,6 hPa 0,0 l/m 0 min 0 min 123 W/m 16,1 km/h (3 Bft) 95,74 %
22.10.2020 14:22 18,8 C 18,3 C 16,7 C 81 % 1011,5 hPa 0,0 l/m 0 min 0 min 166 W/m 3,2 km/h (1 Bft) 95,35 %
22.10.2020 14:24 18,8 C 18,9 C 16,7 C 82 % 1011,5 hPa 0,0 l/m 0 min 0 min 213 W/m 0,0 km/h (0 Bft) 96,00 %
22.10.2020 14:26 18,8 C 19,4 C 16,7 C 82 % 1011,5 hPa 0,0 l/m 2 min 0 min 226 W/m 0,0 km/h (0 Bft) 95,74 %
22.10.2020 14:28 18,8 C 20,0 C 17,2 C 82 % 1011,5 hPa 0,0 l/m 2 min 0 min 260 W/m 22,5 km/h (4 Bft) 95,74 %
22.10.2020 14:30 18,9 C 20,6 C 17,2 C 81 % 1011,4 hPa 0,0 l/m 2 min 0 min 276 W/m 22,5 km/h (4 Bft) 95,74 %
22.10.2020 14:32 18,9 C 21,1 C 17,2 C 81 % 1011,4 hPa 0,0 l/m 2 min 0 min 276 W/m 19,3 km/h (3 Bft) 97,87 %
22.10.2020 14:34 18,9 C 20,6 C 17,2 C 82 % 1011,4 hPa 0,0 l/m 2 min 0 min 244 W/m 0,0 km/h (0 Bft) 100,00 %
22.10.2020 14:36 19,0 C 20,6 C 17,2 C 82 % 1011,3 hPa 0,0 l/m 2 min 0 min 247 W/m 0,0 km/h (0 Bft) 97,67 %
22.10.2020 14:38 19,0 C 20,0 C 17,2 C 81 % 1011,4 hPa 0,0 l/m 2 min 0 min 219 W/m 19,3 km/h (3 Bft) 100,00 %
22.10.2020 14:40 19,0 C 19,4 C 17,2 C 81 % 1011,3 hPa 0,0 l/m 0 min 0 min 208 W/m 22,5 km/h (4 Bft) 93,62 %
22.10.2020 14:42 19,0 C 19,4 C 17,2 C 80 % 1011,4 hPa 0,0 l/m 0 min 0 min 188 W/m 22,5 km/h (4 Bft) 97,96 %
22.10.2020 14:44 19,1 C 18,9 C 17,2 C 80 % 1011,4 hPa 0,0 l/m 0 min 0 min 165 W/m 29,0 km/h (5 Bft) 100,00 %
22.10.2020 14:46 19,1 C 19,4 C 17,2 C 80 % 1011,4 hPa 0,0 l/m 0 min 0 min 160 W/m 16,1 km/h (3 Bft) 97,87 %
22.10.2020 14:48 19,1 C 18,9 C 17,2 C 80 % 1011,4 hPa 0,0 l/m 0 min 0 min 167 W/m 19,3 km/h (3 Bft) 97,87 %
22.10.2020 14:50 19,1 C 19,4 C 17,2 C 80 % 1011,4 hPa 0,0 l/m 0 min 0 min 172 W/m 6,4 km/h (2 Bft) 91,49 %
22.10.2020 14:52 19,1 C 19,4 C 17,2 C 80 % 1011,5 hPa 0,0 l/m 0 min 0 min 185 W/m 19,3 km/h (3 Bft) 97,87 %
22.10.2020 14:54 19,1 C 19,4 C 17,2 C 80 % 1011,5 hPa 0,0 l/m 0 min 0 min 200 W/m 19,3 km/h (3 Bft) 100,00 %
22.10.2020 14:56 19,2 C 19,4 C 17,2 C 80 % 1011,4 hPa 0,0 l/m 2 min 0 min 207 W/m 12,9 km/h (3 Bft) 97,87 %
22.10.2020 14:58 19,2 C 19,4 C 17,2 C 80 % 1011,4 hPa 0,0 l/m 2 min 0 min 204 W/m 0,0 km/h (0 Bft) 97,83 %
22.10.2020 15:00 19,2 C 19,4 C 17,2 C 80 % 1011,4 hPa 0,0 l/m 0 min 0 min 190 W/m 22,5 km/h (4 Bft) 97,87 %
22.10.2020 15:02 19,2 C 18,9 C 17,2 C 80 % 1011,4 hPa 0,0 l/m 0 min 0 min 174 W/m 22,5 km/h (4 Bft) 95,74 %
22.10.2020 15:04 19,3 C 18,9 C 17,2 C 80 % 1011,4 hPa 0,0 l/m 0 min 0 min 152 W/m 0,0 km/h (0 Bft) 97,87 %
22.10.2020 15:06 19,3 C 18,9 C 17,2 C 80 % 1011,4 hPa 0,0 l/m 0 min 0 min 127 W/m 16,1 km/h (3 Bft) 95,74 %
22.10.2020 15:08 19,3 C 18,9 C 17,2 C 80 % 1011,3 hPa 0,0 l/m 0 min 0 min 110 W/m 0,0 km/h (0 Bft) 97,87 %
22.10.2020 15:10 19,3 C 18,9 C 17,2 C 80 % 1011,3 hPa 0,0 l/m 0 min 0 min 102 W/m 3,2 km/h (1 Bft) 97,67 %
22.10.2020 15:12 19,3 C 18,9 C 17,2 C 80 % 1011,3 hPa 0,0 l/m 0 min 0 min 118 W/m 0,0 km/h (0 Bft) 95,74 %
22.10.2020 15:14 19,3 C 18,9 C 17,2 C 80 % 1011,3 hPa 0,0 l/m 0 min 0 min 122 W/m 3,2 km/h (1 Bft) 95,74 %
22.10.2020 15:16 19,3 C 19,4 C 17,2 C 80 % 1011,2 hPa 0,0 l/m 0 min 0 min 139 W/m 16,1 km/h (3 Bft) 98,00 %
22.10.2020 15:18 19,2 C 19,4 C 17,2 C 79 % 1011,2 hPa 0,0 l/m 2 min 0 min 193 W/m 22,5 km/h (4 Bft) 97,83 %
22.10.2020 15:20 19,2 C 19,4 C 17,2 C 80 % 1011,2 hPa 0,0 l/m 2 min 0 min 203 W/m 16,1 km/h (3 Bft) 97,92 %
22.10.2020 15:22 19,2 C 19,4 C 17,2 C 80 % 1011,1 hPa 0,0 l/m 0 min 0 min 142 W/m 16,1 km/h (3 Bft) 95,65 %
22.10.2020 15:24 19,2 C 19,4 C 17,2 C 80 % 1011,1 hPa 0,0 l/m 0 min 0 min 184 W/m 16,1 km/h (3 Bft) 97,87 %
22.10.2020 15:26 19,2 C 19,4 C 17,2 C 80 % 1011,1 hPa 0,0 l/m 0 min 0 min 181 W/m 22,5 km/h (4 Bft) 97,87 %
22.10.2020 15:28 19,2 C 20,0 C 17,2 C 79 % 1011,2 hPa 0,0 l/m 0 min 0 min 125 W/m 22,5 km/h (4 Bft) 97,87 %
22.10.2020 15:30 19,3 C 21,7 C 17,2 C 80 % 1011,1 hPa 0,0 l/m 2 min 0 min 406 W/m 16,1 km/h (3 Bft) 97,87 %
22.10.2020 15:32 19,3 C 21,1 C 17,2 C 80 % 1011,2 hPa 0,0 l/m 2 min 0 min 427 W/m 22,5 km/h (4 Bft) 97,67 %
22.10.2020 15:34 19,3 C 19,4 C 17,2 C 80 % 1011,1 hPa 0,0 l/m 0 min 0 min 174 W/m 19,3 km/h (3 Bft) 97,87 %
22.10.2020 15:36 19,3 C 18,9 C 16,7 C 80 % 1011,1 hPa 0,0 l/m 0 min 0 min 61 W/m 12,9 km/h (3 Bft) 98,00 %
22.10.2020 15:38 19,3 C 18,9 C 16,7 C 80 % 1011,1 hPa 0,0 l/m 0 min 0 min 73 W/m 6,4 km/h (2 Bft) 97,87 %
22.10.2020 15:40 19,3 C 18,9 C 16,7 C 80 % 1011,1 hPa 0,0 l/m 0 min 0 min 91 W/m 0,0 km/h (0 Bft) 97,87 %
22.10.2020 15:42 19,3 C 18,3 C 16,7 C 80 % 1011,1 hPa 0,0 l/m 0 min 0 min 83 W/m 16,1 km/h (3 Bft) 95,74 %
22.10.2020 15:44 19,3 C 18,3 C 16,7 C 80 % 1011,0 hPa 0,0 l/m 0 min 0 min 72 W/m 3,2 km/h (1 Bft) 98,11 %
22.10.2020 15:46 19,3 C 18,9 C 16,7 C 80 % 1011,1 hPa 0,0 l/m 0 min 0 min 113 W/m 0,0 km/h (0 Bft) 94,74 %
22.10.2020 15:48 19,3 C 18,9 C 17,2 C 80 % 1011,0 hPa 0,0 l/m 0 min 0 min 152 W/m 0,0 km/h (0 Bft) 100,00 %
22.10.2020 15:50 19,2 C 18,9 C 17,2 C 80 % 1011,0 hPa 0,0 l/m 0 min 0 min 158 W/m 3,2 km/h (1 Bft) 97,96 %
22.10.2020 15:52 19,3 C 18,9 C 17,2 C 80 % 1010,9 hPa 0,0 l/m 0 min 0 min 142 W/m 0,0 km/h (0 Bft) 100,00 %
22.10.2020 15:54 19,2 C 18,9 C 17,2 C 79 % 1010,9 hPa 0,0 l/m 0 min 0 min 99 W/m 32,2 km/h (5 Bft) 100,00 %
22.10.2020 15:56 19,2 C 18,9 C 17,2 C 79 % 1011,0 hPa 0,0 l/m 0 min 0 min 93 W/m 22,5 km/h (4 Bft) 100,00 %
22.10.2020 15:58 19,2 C 20,0 C 17,2 C 79 % 1010,9 hPa 0,0 l/m 0 min 0 min 127 W/m 22,5 km/h (4 Bft) 100,00 %
22.10.2020 16:00 19,3 C 20,6 C 17,2 C 79 % 1010,9 hPa 0,0 l/m 2 min 0 min 370 W/m 25,7 km/h (4 Bft) 100,00 %
22.10.2020 16:02 19,3 C 21,1 C 17,8 C 79 % 1010,9 hPa 0,0 l/m 2 min 0 min 404 W/m 12,9 km/h (3 Bft) 100,00 %
22.10.2020 16:04 19,4 C 21,1 C 17,8 C 79 % 1010,9 hPa 0,0 l/m 2 min 0 min 329 W/m 6,4 km/h (2 Bft) 100,00 %
22.10.2020 16:06 19,4 C 21,7 C 17,8 C 79 % 1010,9 hPa 0,0 l/m 2 min 0 min 316 W/m 16,1 km/h (3 Bft) 100,00 %
22.10.2020 16:08 19,5 C 21,1 C 17,2 C 79 % 1010,9 hPa 0,0 l/m 2 min 0 min 207 W/m 12,9 km/h (3 Bft) 100,00 %
22.10.2020 16:10 19,5 C 20,0 C 17,2 C 78 % 1010,9 hPa 0,0 l/m 0 min 0 min 130 W/m 16,1 km/h (3 Bft) 97,87 %
22.10.2020 16:12 19,5 C 19,4 C 17,2 C 78 % 1011,0 hPa 0,0 l/m 0 min 0 min 102 W/m 0,0 km/h (0 Bft) 100,00 %
22.10.2020 16:14 19,5 C 18,9 C 17,2 C 78 % 1011,0 hPa 0,0 l/m 0 min 0 min 65 W/m 19,3 km/h (3 Bft) 100,00 %
22.10.2020 16:16 19,5 C 18,9 C 17,2 C 78 % 1010,8 hPa 0,0 l/m 0 min 0 min 56 W/m 19,3 km/h (3 Bft) 100,00 %
22.10.2020 16:18 19,5 C 18,9 C 17,2 C 78 % 1010,7 hPa 0,0 l/m 0 min 0 min 86 W/m 19,3 km/h (3 Bft) 100,00 %
22.10.2020 16:20 19,5 C 18,9 C 17,2 C 78 % 1010,7 hPa 0,0 l/m 0 min 0 min 111 W/m 0,0 km/h (0 Bft) 97,37 %
22.10.2020 16:22 19,6 C 20,6 C 17,2 C 78 % 1010,7 hPa 0,0 l/m 2 min 0 min 175 W/m 16,1 km/h (3 Bft) 97,87 %
22.10.2020 16:24 19,6 C 20,6 C 17,2 C 78 % 1010,7 hPa 0,0 l/m 2 min 0 min 313 W/m 19,3 km/h (3 Bft) 97,87 %
22.10.2020 16:26 19,6 C 21,1 C 17,2 C 78 % 1010,7 hPa 0,0 l/m 2 min 0 min 315 W/m 16,1 km/h (3 Bft) 95,74 %
22.10.2020 16:28 19,6 C 21,1 C 17,2 C 78 % 1010,7 hPa 0,0 l/m 2 min 0 min 266 W/m 22,5 km/h (4 Bft) 97,96 %
22.10.2020 16:30 19,6 C 20,6 C 17,8 C 78 % 1010,8 hPa 0,0 l/m 2 min 0 min 263 W/m 16,1 km/h (3 Bft) 97,87 %
22.10.2020 16:32 19,7 C 20,0 C 17,2 C 78 % 1010,8 hPa 0,0 l/m 2 min 0 min 176 W/m 3,2 km/h (1 Bft) 97,83 %
22.10.2020 16:34 19,7 C 19,4 C 17,2 C 78 % 1010,8 hPa 0,0 l/m 0 min 0 min 112 W/m 16,1 km/h (3 Bft) 95,35 %
22.10.2020 16:36 19,7 C 20,6 C 17,2 C 78 % 1010,9 hPa 0,0 l/m 2 min 0 min 125 W/m 16,1 km/h (3 Bft) 96,61 %
22.10.2020 16:38 19,8 C 20,0 C 17,2 C 78 % 1010,8 hPa 0,0 l/m 2 min 0 min 251 W/m 16,1 km/h (3 Bft) 97,83 %
22.10.2020 16:40 19,8 C 19,4 C 17,2 C 78 % 1010,8 hPa 0,0 l/m 0 min 0 min 114 W/m 3,2 km/h (1 Bft) 97,14 %
22.10.2020 16:42 19,8 C 18,9 C 17,2 C 78 % 1010,8 hPa 0,0 l/m 0 min 0 min 54 W/m 22,5 km/h (4 Bft) 95,74 %
22.10.2020 16:44 19,7 C 18,9 C 17,2 C 77 % 1010,8 hPa 0,0 l/m 0 min 0 min 46 W/m 22,5 km/h (4 Bft) 96,08 %
22.10.2020 16:46 19,7 C 18,9 C 17,2 C 77 % 1010,8 hPa 0,0 l/m 0 min 0 min 50 W/m 16,1 km/h (3 Bft) 95,74 %
22.10.2020 16:48 19,6 C 18,9 C 17,2 C 77 % 1010,8 hPa 0,0 l/m 0 min 0 min 76 W/m 12,9 km/h (3 Bft) 93,62 %
22.10.2020 16:51 19,6 C 18,9 C 16,7 C 78 % 1010,9 hPa 0,0 l/m 0 min 0 min 86 W/m 6,4 km/h (2 Bft) 94,29 %
22.10.2020 16:52 19,6 C 18,9 C 16,7 C 78 % 1011,0 hPa 0,0 l/m 0 min 0 min 63 W/m 16,1 km/h (3 Bft) 95,83 %
22.10.2020 16:56 19,5 C 18,9 C 16,7 C 77 % 1010,9 hPa 0,0 l/m 0 min 0 min 69 W/m 9,7 km/h (2 Bft) 94,29 %
22.10.2020 16:58 19,5 C 18,3 C 16,7 C 77 % 1011,0 hPa 0,0 l/m 0 min 0 min 73 W/m 22,5 km/h (4 Bft) 95,45 %
22.10.2020 17:00 19,4 C 18,3 C 16,7 C 77 % 1010,9 hPa 0,0 l/m 0 min 0 min 72 W/m 16,1 km/h (3 Bft) 95,74 %
22.10.2020 17:02 19,4 C 18,3 C 16,7 C 78 % 1011,0 hPa 0,0 l/m 0 min 0 min 57 W/m 16,1 km/h (3 Bft) 95,92 %
22.10.2020 17:04 19,4 C 18,3 C 16,7 C 78 % 1011,0 hPa 0,0 l/m 0 min 0 min 54 W/m 12,9 km/h (3 Bft) 95,83 %
22.10.2020 17:06 19,3 C 18,3 C 16,7 C 78 % 1011,0 hPa 0,0 l/m 0 min 0 min 53 W/m 16,1 km/h (3 Bft) 95,74 %
22.10.2020 17:08 19,3 C 18,3 C 16,7 C 78 % 1010,9 hPa 0,0 l/m 0 min 0 min 45 W/m 16,1 km/h (3 Bft) 95,65 %
22.10.2020 17:10 19,2 C 18,3 C 16,7 C 78 % 1011,0 hPa 0,0 l/m 0 min 0 min 40 W/m 12,9 km/h (3 Bft) 97,73 %
22.10.2020 17:12 19,1 C 17,8 C 16,7 C 79 % 1011,0 hPa 0,0 l/m 0 min 0 min 34 W/m 6,4 km/h (2 Bft) 93,88 %
22.10.2020 17:14 19,1 C 17,8 C 16,7 C 79 % 1011,0 hPa 0,0 l/m 0 min 0 min 30 W/m 3,2 km/h (1 Bft) 97,92 %
22.10.2020 17:16 19,1 C 17,8 C 16,7 C 79 % 1011,1 hPa 0,0 l/m 0 min 0 min 29 W/m 6,4 km/h (2 Bft) 95,74 %
22.10.2020 17:18 19,1 C 17,8 C 16,1 C 79 % 1011,2 hPa 0,0 l/m 0 min 0 min 28 W/m 0,0 km/h (0 Bft) 97,67 %
22.10.2020 17:20 19,0 C 17,8 C 16,1 C 80 % 1011,2 hPa 0,0 l/m 0 min 0 min 25 W/m 12,9 km/h (3 Bft) 97,87 %
22.10.2020 17:22 19,0 C 17,8 C 16,1 C 80 % 1011,2 hPa 0,0 l/m 0 min 0 min 22 W/m 6,4 km/h (2 Bft) 98,00 %
22.10.2020 17:24 19,0 C 17,8 C 15,6 C 80 % 1011,2 hPa 0,0 l/m 0 min 0 min 21 W/m 0,0 km/h (0 Bft) 97,87 %
22.10.2020 17:26 18,9 C 17,2 C 15,6 C 80 % 1011,1 hPa 0,0 l/m 0 min 2 min 23 W/m 3,2 km/h (1 Bft) 95,74 %
22.10.2020 17:28 18,9 C 17,2 C 15,6 C 81 % 1011,2 hPa 0,0 l/m 0 min 2 min 20 W/m 6,4 km/h (2 Bft) 95,74 %
22.10.2020 17:30 18,9 C 17,2 C 15,6 C 81 % 1011,2 hPa 0,0 l/m 0 min 0 min 19 W/m 6,4 km/h (2 Bft) 97,67 %
22.10.2020 17:32 18,8 C 16,7 C 15,6 C 81 % 1011,2 hPa 0,0 l/m 0 min 2 min 21 W/m 9,7 km/h (2 Bft) 96,00 %
22.10.2020 17:34 18,8 C 16,7 C 15,0 C 81 % 1011,3 hPa 0,0 l/m 0 min 2 min 25 W/m 3,2 km/h (1 Bft) 97,87 %
22.10.2020 17:36 18,7 C 16,1 C 14,5 C 82 % 1011,2 hPa 0,0 l/m 0 min 2 min 26 W/m 3,2 km/h (1 Bft) 97,87 %
22.10.2020 17:38 18,7 C 15,6 C 14,5 C 82 % 1011,2 hPa 0,0 l/m 0 min 2 min 26 W/m 6,4 km/h (2 Bft) 100,00 %
22.10.2020 17:40 18,6 C 15,0 C 13,9 C 83 % 1011,2 hPa 0,0 l/m 0 min 2 min 25 W/m 0,0 km/h (0 Bft) 100,00 %
22.10.2020 17:42 18,6 C 15,0 C 13,9 C 83 % 1011,1 hPa 0,0 l/m 0 min 2 min 21 W/m 12,9 km/h (3 Bft) 100,00 %
22.10.2020 17:44 18,6 C 15,6 C 13,9 C 83 % 1011,2 hPa 0,0 l/m 0 min 0 min 19 W/m 6,4 km/h (2 Bft) 95,45 %
22.10.2020 17:46 18,5 C 15,6 C 13,9 C 83 % 1011,3 hPa 0,0 l/m 0 min 0 min 17 W/m 0,0 km/h (0 Bft) 100,00 %
22.10.2020 17:48 18,5 C 15,6 C 13,9 C 84 % 1011,2 hPa 0,0 l/m 0 min 2 min 16 W/m 0,0 km/h (0 Bft) 100,00 %
22.10.2020 17:50 18,4 C 15,0 C 13,9 C 84 % 1011,3 hPa 0,0 l/m 0 min 2 min 15 W/m 6,4 km/h (2 Bft) 100,00 %
22.10.2020 17:52 18,4 C 15,0 C 13,9 C 84 % 1011,2 hPa 0,0 l/m 0 min 2 min 14 W/m 12,9 km/h (3 Bft) 95,35 %
22.10.2020 17:54 18,3 C 15,0 C 13,9 C 85 % 1011,3 hPa 0,0 l/m 0 min 2 min 16 W/m 12,9 km/h (3 Bft) 96,00 %
22.10.2020 17:56 18,3 C 15,0 C 13,9 C 85 % 1011,3 hPa 0,0 l/m 0 min 2 min 14 W/m 19,3 km/h (3 Bft) 95,74 %
22.10.2020 17:58 18,2 C 15,0 C 13,9 C 85 % 1011,3 hPa 0,0 l/m 0 min 0 min 10 W/m 6,4 km/h (2 Bft) 95,74 %
22.10.2020 18:00 18,1 C 15,0 C 13,9 C 85 % 1011,3 hPa 0,0 l/m 0 min 2 min 7 W/m 16,1 km/h (3 Bft) 97,67 %
22.10.2020 18:02 18,0 C 15,0 C 13,4 C 86 % 1011,3 hPa 0,2 l/m 0 min 2 min 11 W/m 16,1 km/h (3 Bft) 95,74 %
22.10.2020 18:04 17,9 C 15,0 C 13,4 C 86 % 1011,3 hPa 0,0 l/m 0 min 2 min 12 W/m 22,5 km/h (4 Bft) 97,87 %
22.10.2020 18:08 17,7 C 14,4 C 13,4 C 87 % 1011,2 hPa 0,0 l/m 0 min 4 min 14 W/m 16,1 km/h (3 Bft) 97,94 %
22.10.2020 18:10 17,6 C 15,0 C 13,4 C 87 % 1011,2 hPa 0,0 l/m 2 min 2 min 24 W/m 0,0 km/h (0 Bft) 97,96 %
22.10.2020 18:12 17,6 C 15,0 C 13,4 C 88 % 1011,2 hPa 0,0 l/m 2 min 0 min 31 W/m 0,0 km/h (0 Bft) 97,87 %
22.10.2020 18:14 17,5 C 15,0 C 13,4 C 88 % 1011,2 hPa 0,0 l/m 2 min 0 min 20 W/m 0,0 km/h (0 Bft) 95,74 %
22.10.2020 18:16 17,5 C 15,0 C 13,4 C 88 % 1011,2 hPa 0,0 l/m 0 min 0 min 13 W/m 0,0 km/h (0 Bft) 97,87 %
22.10.2020 18:18 17,4 C 14,4 C 13,4 C 88 % 1011,2 hPa 0,0 l/m 0 min 0 min 11 W/m 0,0 km/h (0 Bft) 97,87 %
22.10.2020 18:20 17,4 C 14,4 C 13,4 C 88 % 1011,1 hPa 0,0 l/m 0 min 0 min 9 W/m 0,0 km/h (0 Bft) 97,14 %
22.10.2020 18:22 17,3 C 14,4 C 13,4 C 88 % 1011,2 hPa 0,0 l/m 0 min 0 min 8 W/m 0,0 km/h (0 Bft) 96,36 %
22.10.2020 18:24 17,3 C 14,4 C 13,4 C 89 % 1011,2 hPa 0,0 l/m 0 min 0 min 7 W/m 0,0 km/h (0 Bft) 98,00 %
22.10.2020 18:26 17,2 C 14,4 C 13,4 C 89 % 1011,2 hPa 0,0 l/m 0 min 0 min 5 W/m 0,0 km/h (0 Bft) 93,75 %
22.10.2020 18:28 17,1 C 14,4 C 13,4 C 89 % 1011,1 hPa 0,0 l/m 0 min 0 min 5 W/m 0,0 km/h (0 Bft) 100,00 %
22.10.2020 18:30 17,0 C 14,4 C 13,4 C 89 % 1011,1 hPa 0,0 l/m 0 min 0 min 5 W/m 0,0 km/h (0 Bft) 96,36 %
22.10.2020 18:32 17,0 C 14,4 C 13,4 C 89 % 1011,1 hPa 0,0 l/m 0 min 0 min 0 W/m 0,0 km/h (0 Bft) 98,00 %
22.10.2020 18:34 16,9 C 14,4 C 13,4 C 90 % 1011,1 hPa 0,0 l/m 0 min 0 min 0 W/m 0,0 km/h (0 Bft) 97,87 %
22.10.2020 18:36 16,9 C 14,4 C 13,4 C 90 % 1011,2 hPa 0,0 l/m 0 min 0 min 0 W/m 0,0 km/h (0 Bft) 97,14 %
22.10.2020 18:38 16,8 C 14,4 C 13,4 C 90 % 1011,2 hPa 0,0 l/m 0 min 0 min 0 W/m 0,0 km/h (0 Bft) 100,00 %
22.10.2020 18:40 16,8 C 14,4 C 13,4 C 90 % 1011,2 hPa 0,0 l/m 0 min 0 min 0 W/m 0,0 km/h (0 Bft) 100,00 %
22.10.2020 18:42 16,8 C 14,4 C 13,4 C 90 % 1011,2 hPa 0,0 l/m 0 min 0 min 0 W/m 0,0 km/h (0 Bft) 100,00 %
22.10.2020 18:44 16,7 C 14,4 C 13,4 C 90 % 1011,2 hPa 0,0 l/m 0 min 0 min 0 W/m 0,0 km/h (0 Bft) 100,00 %
22.10.2020 18:46 16,6 C 14,4 C 13,4 C 90 % 1011,1 hPa 0,0 l/m 0 min 0 min 0 W/m 0,0 km/h (0 Bft) 100,00 %
22.10.2020 18:48 16,6 C 14,4 C 13,4 C 90 % 1011,2 hPa 0,0 l/m 0 min 0 min 0 W/m 0,0 km/h (0 Bft) 100,00 %
22.10.2020 18:50 16,5 C 14,4 C 13,4 C 91 % 1011,3 hPa 0,0 l/m 0 min 0 min 0 W/m 0,0 km/h (0 Bft) 100,00 %
22.10.2020 18:52 16,5 C 14,4 C 13,4 C 91 % 1011,3 hPa 0,0 l/m 0 min 0 min 0 W/m 0,0 km/h (0 Bft) 100,00 %
22.10.2020 18:54 16,5 C 14,4 C 13,4 C 91 % 1011,3 hPa 0,0 l/m 0 min 0 min 0 W/m 0,0 km/h (0 Bft) 100,00 %
22.10.2020 18:56 16,4 C 14,4 C 12,8 C 91 % 1011,3 hPa 0,0 l/m 0 min 0 min 0 W/m 0,0 km/h (0 Bft) 100,00 %
22.10.2020 18:58 16,4 C 14,4 C 12,8 C 91 % 1011,4 hPa 0,0 l/m 0 min 0 min 0 W/m 0,0 km/h (0 Bft) 100,00 %
22.10.2020 19:00 16,3 C 14,4 C 12,8 C 91 % 1011,3 hPa 0,0 l/m 0 min 0 min 0 W/m 0,0 km/h (0 Bft) 100,00 %
22.10.2020 19:02 16,3 C 13,9 C 12,8 C 91 % 1011,4 hPa 0,0 l/m 0 min 0 min 0 W/m 0,0 km/h (0 Bft) 100,00 %
22.10.2020 19:04 16,2 C 13,9 C 12,8 C 91 % 1011,5 hPa 0,0 l/m 0 min 0 min 0 W/m 0,0 km/h (0 Bft) 100,00 %
22.10.2020 19:06 16,2 C 13,9 C 12,8 C 91 % 1011,5 hPa 0,0 l/m 0 min 0 min 0 W/m 0,0 km/h (0 Bft) 100,00 %
22.10.2020 19:08 16,1 C 13,9 C 12,8 C 91 % 1011,6 hPa 0,0 l/m 0 min 0 min 0 W/m 0,0 km/h (0 Bft) 100,00 %
22.10.2020 19:10 16,1 C 13,9 C 12,8 C 91 % 1011,5 hPa 0,0 l/m 0 min 0 min 0 W/m 0,0 km/h (0 Bft) 97,87 %
22.10.2020 19:12 16,0 C 13,9 C 12,8 C 92 % 1011,6 hPa 0,0 l/m 0 min 0 min 0 W/m 3,2 km/h (1 Bft) 98,18 %
22.10.2020 19:14 16,0 C 13,9 C 12,8 C 92 % 1011,6 hPa 0,0 l/m 0 min 0 min 0 W/m 3,2 km/h (1 Bft) 96,00 %
22.10.2020 19:16 16,0 C 13,9 C 12,8 C 92 % 1011,7 hPa 0,0 l/m 0 min 0 min 0 W/m 0,0 km/h (0 Bft) 97,87 %
22.10.2020 19:18 15,9 C 13,9 C 12,8 C 92 % 1011,8 hPa 0,0 l/m 0 min 0 min 0 W/m 6,4 km/h (2 Bft) 97,14 %
22.10.2020 19:20 15,9 C 13,9 C 12,8 C 92 % 1011,8 hPa 0,0 l/m 0 min 0 min 0 W/m 0,0 km/h (0 Bft) 98,21 %
22.10.2020 19:22 15,9 C 13,9 C 12,8 C 92 % 1011,9 hPa 0,0 l/m 0 min 0 min 0 W/m 0,0 km/h (0 Bft) 97,96 %
22.10.2020 19:24 15,8 C 13,9 C 12,8 C 92 % 1011,9 hPa 0,0 l/m 0 min 0 min 0 W/m 0,0 km/h (0 Bft) 97,92 %
22.10.2020 19:26 15,8 C 13,9 C 12,8 C 92 % 1011,9 hPa 0,0 l/m 0 min 0 min 0 W/m 0,0 km/h (0 Bft) 95,12 %
22.10.2020 19:28 15,8 C 13,9 C 12,8 C 92 % 1011,9 hPa 0,0 l/m 0 min 0 min 0 W/m 0,0 km/h (0 Bft) 97,87 %
22.10.2020 19:30 15,8 C 13,9 C 12,8 C 93 % 1011,9 hPa 0,0 l/m 0 min 0 min 0 W/m 0,0 km/h (0 Bft) 96,00 %
22.10.2020 19:32 15,7 C 13,9 C 12,8 C 93 % 1012,0 hPa 0,0 l/m 0 min 0 min 0 W/m 0,0 km/h (0 Bft) 95,92 %
22.10.2020 19:34 15,7 C 13,9 C 12,8 C 93 % 1011,9 hPa 0,0 l/m 0 min 0 min 0 W/m 0,0 km/h (0 Bft) 97,87 %
22.10.2020 19:36 15,6 C 13,9 C 12,8 C 93 % 1011,9 hPa 0,0 l/m 0 min 0 min 0 W/m 0,0 km/h (0 Bft) 95,74 %
22.10.2020 19:38 15,6 C 13,9 C 12,8 C 93 % 1012,0 hPa 0,0 l/m 0 min 0 min 0 W/m 0,0 km/h (0 Bft) 97,56 %
22.10.2020 19:40 15,6 C 13,9 C 12,8 C 93 % 1012,0 hPa 0,0 l/m 0 min 0 min 0 W/m 0,0 km/h (0 Bft) 98,00 %
22.10.2020 19:42 15,6 C 13,9 C 12,8 C 93 % 1012,1 hPa 0,0 l/m 0 min 0 min 0 W/m 0,0 km/h (0 Bft) 97,96 %
22.10.2020 19:44 15,5 C 13,9 C 12,8 C 93 % 1012,1 hPa 0,0 l/m 0 min 0 min 0 W/m 0,0 km/h (0 Bft) 97,14 %
22.10.2020 19:46 15,5 C 13,9 C 12,8 C 93 % 1012,1 hPa 0,0 l/m 0 min 0 min 0 W/m 0,0 km/h (0 Bft) 98,18 %
22.10.2020 19:48 15,5 C 13,9 C 12,8 C 93 % 1012,1 hPa 0,0 l/m 0 min 0 min 0 W/m 0,0 km/h (0 Bft) 96,00 %
22.10.2020 19:50 15,5 C 13,9 C 12,8 C 93 % 1012,1 hPa 0,0 l/m 0 min 0 min 0 W/m 0,0 km/h (0 Bft) 97,87 %
22.10.2020 19:52 15,4 C 13,9 C 12,8 C 94 % 1012,1 hPa 0,0 l/m 0 min 0 min 0 W/m 0,0 km/h (0 Bft) 97,87 %
22.10.2020 19:54 15,4 C 13,9 C 12,8 C 94 % 1012,1 hPa 0,0 l/m 0 min 0 min 0 W/m 0,0 km/h (0 Bft) 97,14 %
22.10.2020 19:56 15,4 C 13,9 C 12,8 C 94 % 1012,1 hPa 0,0 l/m 0 min 0 min 0 W/m 0,0 km/h (0 Bft) 94,55 %
22.10.2020 19:58 15,4 C 13,9 C 12,8 C 94 % 1012,1 hPa 0,0 l/m 0 min 0 min 0 W/m 0,0 km/h (0 Bft) 97,87 %
22.10.2020 20:00 15,4 C 13,9 C 12,8 C 94 % 1012,1 hPa 0,0 l/m 0 min 0 min 0 W/m 0,0 km/h (0 Bft) 98,00 %
22.10.2020 20:02 15,3 C 13,9 C 12,8 C 94 % 1012,1 hPa 0,0 l/m 0 min 0 min 0 W/m 0,0 km/h (0 Bft) 97,87 %
22.10.2020 20:04 15,3 C 13,9 C 12,8 C 94 % 1012,1 hPa 0,0 l/m 0 min 0 min 0 W/m 0,0 km/h (0 Bft) 97,14 %
22.10.2020 20:06 15,3 C 13,9 C 12,8 C 94 % 1012,1 hPa 0,0 l/m 0 min 0 min 0 W/m 0,0 km/h (0 Bft) 100,00 %
22.10.2020 20:08 15,3 C 13,9 C 12,8 C 94 % 1012,1 hPa 0,0 l/m 0 min 0 min 0 W/m 0,0 km/h (0 Bft) 100,00 %
22.10.2020 20:10 15,2 C 13,9 C 12,8 C 94 % 1012,1 hPa 0,0 l/m 0 min 0 min 0 W/m 0,0 km/h (0 Bft) 100,00 %
22.10.2020 20:12 15,2 C 13,9 C 12,8 C 94 % 1012,2 hPa 0,0 l/m 0 min 0 min 0 W/m 0,0 km/h (0 Bft) 94,29 %
22.10.2020 20:14 15,2 C 13,9 C 12,8 C 94 % 1012,1 hPa 0,0 l/m 0 min 0 min 0 W/m 0,0 km/h (0 Bft) 100,00 %
22.10.2020 20:16 15,2 C 13,9 C 12,8 C 94 % 1012,1 hPa 0,0 l/m 0 min 0 min 0 W/m 16,1 km/h (3 Bft) 100,00 %
22.10.2020 20:18 15,1 C 13,9 C 12,8 C 94 % 1012,1 hPa 0,0 l/m 0 min 0 min 0 W/m 0,0 km/h (0 Bft) 100,00 %
22.10.2020 20:20 15,1 C 13,9 C 12,8 C 94 % 1012,1 hPa 0,0 l/m 0 min 0 min 0 W/m 0,0 km/h (0 Bft) 97,14 %
22.10.2020 20:22 15,1 C 13,9 C 12,8 C 95 % 1012,2 hPa 0,0 l/m 0 min 0 min 0 W/m 0,0 km/h (0 Bft) 100,00 %
22.10.2020 20:24 15,1 C 13,9 C 12,8 C 95 % 1012,2 hPa 0,0 l/m 0 min 0 min 0 W/m 0,0 km/h (0 Bft) 96,36 %
22.10.2020 20:26 15,1 C 13,9 C 12,8 C 95 % 1012,2 hPa 0,0 l/m 0 min 0 min 0 W/m 0,0 km/h (0 Bft) 98,00 %
22.10.2020 20:28 15,1 C 13,9 C 12,8 C 95 % 1012,2 hPa 0,0 l/m 0 min 0 min 0 W/m 0,0 km/h (0 Bft) 97,87 %
22.10.2020 20:30 15,1 C 13,9 C 12,8 C 95 % 1012,1 hPa 0,0 l/m 0 min 0 min 0 W/m 0,0 km/h (0 Bft) 95,74 %
22.10.2020 20:32 15,0 C 13,9 C 12,8 C 95 % 1012,1 hPa 0,0 l/m 0 min 0 min 0 W/m 0,0 km/h (0 Bft) 97,87 %
22.10.2020 20:34 15,0 C 13,9 C 12,8 C 95 % 1012,0 hPa 0,0 l/m 0 min 0 min 0 W/m 0,0 km/h (0 Bft) 95,83 %
22.10.2020 20:36 15,0 C 13,3 C 12,2 C 95 % 1011,9 hPa 0,0 l/m 0 min 0 min 0 W/m 0,0 km/h (0 Bft) 93,48 %
22.10.2020 20:38 15,0 C 13,3 C 12,2 C 95 % 1011,9 hPa 0,0 l/m 0 min 0 min 0 W/m 0,0 km/h (0 Bft) 95,74 %
22.10.2020 20:40 15,0 C 13,3 C 12,2 C 95 % 1011,9 hPa 0,0 l/m 0 min 0 min 0 W/m 0,0 km/h (0 Bft) 93,75 %
22.10.2020 20:42 14,9 C 13,3 C 12,2 C 95 % 1011,9 hPa 0,0 l/m 0 min 0 min 0 W/m 0,0 km/h (0 Bft) 93,62 %
22.10.2020 20:44 14,9 C 13,3 C 12,2 C 95 % 1011,9 hPa 0,0 l/m 0 min 0 min 0 W/m 0,0 km/h (0 Bft) 95,83 %
22.10.2020 20:46 14,9 C 13,3 C 12,2 C 95 % 1011,9 hPa 0,0 l/m 0 min 0 min 0 W/m 0,0 km/h (0 Bft) 95,35 %
22.10.2020 20:48 14,9 C 13,3 C 12,2 C 95 % 1012,0 hPa 0,0 l/m 0 min 0 min 0 W/m 0,0 km/h (0 Bft) 95,74 %
22.10.2020 20:50 14,9 C 13,3 C 12,2 C 95 % 1012,1 hPa 0,0 l/m 0 min 0 min 0 W/m 0,0 km/h (0 Bft) 95,74 %
22.10.2020 20:52 14,8 C 13,3 C 12,2 C 95 % 1012,1 hPa 0,0 l/m 0 min 0 min 0 W/m 0,0 km/h (0 Bft) 93,62 %
22.10.2020 20:54 14,8 C 13,3 C 12,2 C 95 % 1012,1 hPa 0,0 l/m 0 min 0 min 0 W/m 0,0 km/h (0 Bft) 92,68 %
22.10.2020 20:56 14,8 C 13,3 C 12,2 C 95 % 1012,0 hPa 0,0 l/m 0 min 0 min 0 W/m 0,0 km/h (0 Bft) 95,74 %
22.10.2020 20:58 14,8 C 13,3 C 12,2 C 95 % 1012,0 hPa 0,0 l/m 0 min 0 min 0 W/m 0,0 km/h (0 Bft) 95,74 %
22.10.2020 21:00 14,7 C 13,3 C 12,2 C 95 % 1012,1 hPa 0,0 l/m 0 min 0 min 0 W/m 0,0 km/h (0 Bft) 95,74 %
22.10.2020 21:02 14,7 C 12,8 C 11,7 C 95 % 1012,1 hPa 0,0 l/m 0 min 0 min 0 W/m 0,0 km/h (0 Bft) 95,92 %
22.10.2020 21:04 14,6 C 12,8 C 11,7 C 95 % 1012,0 hPa 0,0 l/m 0 min 0 min 0 W/m 0,0 km/h (0 Bft) 95,74 %
22.10.2020 21:06 14,6 C 13,3 C 11,7 C 95 % 1012,1 hPa 0,0 l/m 0 min 0 min 0 W/m 0,0 km/h (0 Bft) 93,75 %
22.10.2020 21:08 14,6 C 13,3 C 11,7 C 95 % 1012,0 hPa 0,0 l/m 0 min 0 min 0 W/m 0,0 km/h (0 Bft) 95,74 %
22.10.2020 21:10 14,6 C 12,8 C 11,7 C 95 % 1012,1 hPa 0,0 l/m 0 min 0 min 0 W/m 0,0 km/h (0 Bft) 95,74 %
22.10.2020 21:12 14,5 C 12,8 C 11,7 C 95 % 1012,1 hPa 0,0 l/m 0 min 0 min 0 W/m 0,0 km/h (0 Bft) 93,62 %
22.10.2020 21:14 14,5 C 12,8 C 11,7 C 95 % 1012,1 hPa 0,0 l/m 0 min 0 min 0 W/m 0,0 km/h (0 Bft) 95,83 %
22.10.2020 21:16 14,5 C 12,8 C 11,7 C 95 % 1012,2 hPa 0,0 l/m 0 min 0 min 0 W/m 0,0 km/h (0 Bft) 95,65 %
22.10.2020 21:18 14,5 C 12,8 C 11,7 C 95 % 1012,2 hPa 0,0 l/m 0 min 0 min 0 W/m 0,0 km/h (0 Bft) 97,87 %
22.10.2020 21:20 14,5 C 12,8 C 11,7 C 95 % 1012,2 hPa 0,0 l/m 0 min 0 min 0 W/m 0,0 km/h (0 Bft) 97,87 %
22.10.2020 21:22 14,4 C 12,8 C 11,7 C 95 % 1012,3 hPa 0,0 l/m 0 min 0 min 0 W/m 0,0 km/h (0 Bft) 97,87 %
22.10.2020 21:24 14,4 C 12,8 C 11,7 C 95 % 1012,3 hPa 0,0 l/m 0 min 0 min 0 W/m 0,0 km/h (0 Bft) 97,87 %
22.10.2020 21:26 14,4 C 12,8 C 11,7 C 95 % 1012,4 hPa 0,0 l/m 0 min 0 min 0 W/m 0,0 km/h (0 Bft) 97,87 %
22.10.2020 21:28 14,4 C 12,8 C 12,2 C 95 % 1012,4 hPa 0,0 l/m 0 min 0 min 0 W/m 0,0 km/h (0 Bft) 97,83 %
22.10.2020 21:30 14,3 C 12,8 C 12,2 C 95 % 1012,5 hPa 0,0 l/m 0 min 0 min 0 W/m 0,0 km/h (0 Bft) 97,87 %
22.10.2020 21:32 14,3 C 12,8 C 12,2 C 95 % 1012,4 hPa 0,0 l/m 0 min 0 min 0 W/m 0,0 km/h (0 Bft) 97,92 %
22.10.2020 21:34 14,3 C 12,8 C 12,2 C 95 % 1012,4 hPa 0,0 l/m 0 min 0 min 0 W/m 0,0 km/h (0 Bft) 97,87 %
22.10.2020 21:36 14,2 C 12,8 C 12,2 C 95 % 1012,4 hPa 0,0 l/m 0 min 0 min 0 W/m 0,0 km/h (0 Bft) 97,87 %
22.10.2020 21:38 14,2 C 12,8 C 12,2 C 95 % 1012,5 hPa 0,0 l/m 0 min 0 min 0 W/m 0,0 km/h (0 Bft) 97,87 %
22.10.2020 21:40 14,2 C 12,8 C 12,2 C 95 % 1012,4 hPa 0,0 l/m 0 min 0 min 0 W/m 0,0 km/h (0 Bft) 97,83 %
22.10.2020 21:42 14,2 C 12,8 C 12,2 C 95 % 1012,5 hPa 0,0 l/m 0 min 0 min 0 W/m 0,0 km/h (0 Bft) 97,87 %
22.10.2020 21:44 14,2 C 12,8 C 12,2 C 95 % 1012,5 hPa 0,0 l/m 0 min 0 min 0 W/m 0,0 km/h (0 Bft) 100,00 %
22.10.2020 21:46 14,2 C 12,8 C 12,2 C 95 % 1012,5 hPa 0,0 l/m 0 min 0 min 0 W/m 0,0 km/h (0 Bft) 100,00 %
22.10.2020 21:48 14,2 C 12,8 C 11,7 C 95 % 1012,5 hPa 0,0 l/m 0 min 0 min 0 W/m 0,0 km/h (0 Bft) 97,78 %
22.10.2020 21:50 14,2 C 12,8 C 11,7 C 95 % 1012,5 hPa 0,0 l/m 0 min 0 min 0 W/m 0,0 km/h (0 Bft) 100,00 %
22.10.2020 21:52 14,2 C 12,8 C 12,2 C 95 % 1012,6 hPa 0,0 l/m 0 min 0 min 0 W/m 0,0 km/h (0 Bft) 100,00 %
22.10.2020 21:54 14,2 C 12,8 C 12,2 C 96 % 1012,6 hPa 0,0 l/m 0 min 0 min 0 W/m 0,0 km/h (0 Bft) 100,00 %
22.10.2020 21:56 14,2 C 12,8 C 12,2 C 96 % 1012,5 hPa 0,0 l/m 0 min 0 min 0 W/m 0,0 km/h (0 Bft) 97,87 %
22.10.2020 21:58 14,2 C 12,8 C 12,2 C 96 % 1012,5 hPa 0,0 l/m 0 min 0 min 0 W/m 0,0 km/h (0 Bft) 100,00 %
22.10.2020 22:00 14,2 C 12,8 C 12,2 C 96 % 1012,5 hPa 0,0 l/m 0 min 0 min 0 W/m 3,2 km/h (1 Bft) 97,87 %
22.10.2020 22:02 14,2 C 12,8 C 12,2 C 96 % 1012,6 hPa 0,0 l/m 0 min 0 min 0 W/m 3,2 km/h (1 Bft) 98,00 %
22.10.2020 22:04 14,2 C 13,3 C 12,2 C 96 % 1012,5 hPa 0,0 l/m 0 min 0 min 0 W/m 0,0 km/h (0 Bft) 100,00 %
22.10.2020 22:06 14,2 C 12,8 C 12,2 C 96 % 1012,6 hPa 0,0 l/m 0 min 0 min 0 W/m 0,0 km/h (0 Bft) 95,74 %
22.10.2020 22:08 14,2 C 12,8 C 12,2 C 96 % 1012,5 hPa 0,0 l/m 0 min 0 min 0 W/m 0,0 km/h (0 Bft) 97,87 %
22.10.2020 22:10 14,1 C 12,8 C 12,2 C 96 % 1012,5 hPa 0,0 l/m 0 min 0 min 0 W/m 0,0 km/h (0 Bft) 97,87 %
22.10.2020 22:12 14,2 C 12,8 C 12,2 C 96 % 1012,6 hPa 0,0 l/m 0 min 0 min 0 W/m 0,0 km/h (0 Bft) 97,87 %
22.10.2020 22:14 14,1 C 12,8 C 12,2 C 96 % 1012,5 hPa 0,0 l/m 0 min 0 min 0 W/m 0,0 km/h (0 Bft) 97,56 %
22.10.2020 22:16 14,1 C 12,8 C 12,2 C 96 % 1012,6 hPa 0,0 l/m 0 min 0 min 0 W/m 0,0 km/h (0 Bft) 97,92 %
22.10.2020 22:18 14,1 C 12,8 C 12,2 C 96 % 1012,6 hPa 0,0 l/m 0 min 0 min 0 W/m 0,0 km/h (0 Bft) 97,87 %
22.10.2020 22:20 14,1 C 13,3 C 12,2 C 96 % 1012,6 hPa 0,0 l/m 0 min 0 min 0 W/m 0,0 km/h (0 Bft) 97,87 %
22.10.2020 22:22 14,1 C 13,3 C 12,2 C 96 % 1012,6 hPa 0,0 l/m 0 min 0 min 0 W/m 0,0 km/h (0 Bft) 97,87 %
22.10.2020 22:24 14,1 C 13,3 C 12,2 C 96 % 1012,5 hPa 0,0 l/m 0 min 0 min 0 W/m 0,0 km/h (0 Bft) 95,83 %
22.10.2020 22:26 14,2 C 13,3 C 12,2 C 96 % 1012,5 hPa 0,0 l/m 0 min 0 min 0 W/m 0,0 km/h (0 Bft) 97,87 %
22.10.2020 22:28 14,2 C 13,3 C 12,2 C 96 % 1012,5 hPa 0,0 l/m 0 min 0 min 0 W/m 0,0 km/h (0 Bft) 97,87 %
22.10.2020 22:30 14,2 C 13,3 C 12,2 C 97 % 1012,5 hPa 0,0 l/m 0 min 0 min 0 W/m 0,0 km/h (0 Bft) 97,87 %
22.10.2020 22:32 14,2 C 13,3 C 12,2 C 97 % 1012,5 hPa 0,0 l/m 0 min 0 min 0 W/m 0,0 km/h (0 Bft) 97,83 %
22.10.2020 22:34 14,2 C 13,3 C 12,2 C 97 % 1012,4 hPa 0,0 l/m 0 min 0 min 0 W/m 0,0 km/h (0 Bft) 97,87 %
22.10.2020 22:36 14,2 C 13,3 C 12,2 C 97 % 1012,5 hPa 0,0 l/m 0 min 0 min 0 W/m 0,0 km/h (0 Bft) 95,74 %
22.10.2020 22:38 14,2 C 13,3 C 12,2 C 97 % 1012,5 hPa 0,0 l/m 0 min 0 min 0 W/m 0,0 km/h (0 Bft) 97,87 %
22.10.2020 22:40 14,2 C 13,3 C 12,2 C 97 % 1012,5 hPa 0,0 l/m 0 min 0 min 0 W/m 0,0 km/h (0 Bft) 97,87 %
22.10.2020 22:42 14,2 C 13,3 C 12,2 C 97 % 1012,5 hPa 0,0 l/m 0 min 0 min 0 W/m 0,0 km/h (0 Bft) 95,74 %
22.10.2020 22:44 14,2 C 13,3 C 12,2 C 97 % 1012,5 hPa 0,0 l/m 0 min 0 min 0 W/m 0,0 km/h (0 Bft) 97,87 %
22.10.2020 22:46 14,2 C 13,3 C 12,2 C 97 % 1012,5 hPa 0,0 l/m 0 min 0 min 0 W/m 0,0 km/h (0 Bft) 97,87 %
22.10.2020 22:48 14,2 C 12,8 C 11,7 C 97 % 1012,5 hPa 0,0 l/m 0 min 0 min 0 W/m 0,0 km/h (0 Bft) 97,87 %
22.10.2020 22:50 14,2 C 12,8 C 11,7 C 97 % 1012,6 hPa 0,0 l/m 0 min 0 min 0 W/m 0,0 km/h (0 Bft) 97,78 %
22.10.2020 22:52 14,1 C 12,8 C 11,7 C 97 % 1012,6 hPa 0,0 l/m 0 min 0 min 0 W/m 0,0 km/h (0 Bft) 97,92 %
22.10.2020 22:54 14,1 C 12,8 C 11,7 C 97 % 1012,6 hPa 0,0 l/m 0 min 0 min 0 W/m 0,0 km/h (0 Bft) 97,87 %
22.10.2020 22:56 14,1 C 12,8 C 11,1 C 97 % 1012,7 hPa 0,0 l/m 0 min 0 min 0 W/m 0,0 km/h (0 Bft) 100,00 %
22.10.2020 22:58 14,1 C 12,8 C 11,1 C 97 % 1012,7 hPa 0,0 l/m 0 min 0 min 0 W/m 0,0 km/h (0 Bft) 95,74 %
22.10.2020 23:00 14,0 C 12,8 C 11,1 C 97 % 1012,8 hPa 0,0 l/m 0 min 0 min 0 W/m 0,0 km/h (0 Bft) 100,00 %
22.10.2020 23:02 14,0 C 12,8 C 11,1 C 97 % 1012,7 hPa 0,0 l/m 0 min 0 min 0 W/m 0,0 km/h (0 Bft) 95,65 %
22.10.2020 23:04 14,0 C 12,8 C 11,1 C 97 % 1012,7 hPa 0,0 l/m 0 min 0 min 0 W/m 0,0 km/h (0 Bft) 97,87 %
22.10.2020 23:06 14,0 C 12,8 C 11,1 C 97 % 1012,7 hPa 0,0 l/m 0 min 0 min 0 W/m 0,0 km/h (0 Bft) 97,87 %
22.10.2020 23:08 14,0 C 12,8 C 11,1 C 97 % 1012,6 hPa 0,0 l/m 0 min 0 min 0 W/m 0,0 km/h (0 Bft) 97,92 %
22.10.2020 23:10 13,9 C 12,8 C 11,1 C 97 % 1012,7 hPa 0,0 l/m 0 min 0 min 0 W/m 0,0 km/h (0 Bft) 97,87 %
22.10.2020 23:12 13,9 C 12,8 C 11,1 C 97 % 1012,7 hPa 0,0 l/m 0 min 0 min 0 W/m 0,0 km/h (0 Bft) 97,87 %
22.10.2020 23:14 13,9 C 12,8 C 11,1 C 97 % 1012,7 hPa 0,0 l/m 0 min 0 min 0 W/m 0,0 km/h (0 Bft) 95,65 %
22.10.2020 23:16 13,9 C 12,8 C 11,1 C 97 % 1012,7 hPa 0,0 l/m 0 min 0 min 0 W/m 0,0 km/h (0 Bft) 97,87 %
22.10.2020 23:18 13,9 C 12,8 C 11,1 C 97 % 1012,8 hPa 0,0 l/m 0 min 0 min 0 W/m 0,0 km/h (0 Bft) 95,74 %
22.10.2020 23:20 13,8 C 12,8 C 11,7 C 97 % 1012,8 hPa 0,0 l/m 0 min 0 min 0 W/m 0,0 km/h (0 Bft) 97,92 %
22.10.2020 23:22 13,8 C 12,8 C 11,7 C 97 % 1012,7 hPa 0,0 l/m 0 min 0 min 0 W/m 0,0 km/h (0 Bft) 97,87 %
22.10.2020 23:24 13,8 C 12,8 C 11,7 C 97 % 1012,8 hPa 0,0 l/m 0 min 0 min 0 W/m 0,0 km/h (0 Bft) 97,83 %
22.10.2020 23:26 13,8 C 13,3 C 11,7 C 97 % 1012,8 hPa 0,0 l/m 0 min 0 min 0 W/m 0,0 km/h (0 Bft) 97,87 %
22.10.2020 23:28 13,8 C 12,8 C 11,7 C 97 % 1012,8 hPa 0,0 l/m 0 min 0 min 0 W/m 0,0 km/h (0 Bft) 95,74 %
22.10.2020 23:30 13,8 C 13,3 C 11,7 C 97 % 1012,8 hPa 0,0 l/m 0 min 0 min 0 W/m 0,0 km/h (0 Bft) 97,87 %
22.10.2020 23:32 13,8 C 12,8 C 11,7 C 97 % 1012,8 hPa 0,0 l/m 0 min 0 min 0 W/m 0,0 km/h (0 Bft) 97,87 %
22.10.2020 23:34 13,8 C 12,8 C 11,7 C 97 % 1012,8 hPa 0,0 l/m 0 min 0 min 0 W/m 0,0 km/h (0 Bft) 97,56 %
22.10.2020 23:36 13,8 C 12,8 C 11,7 C 97 % 1012,8 hPa 0,0 l/m 0 min 0 min 0 W/m 0,0 km/h (0 Bft) 97,87 %
22.10.2020 23:38 13,8 C 12,8 C 11,7 C 97 % 1012,8 hPa 0,0 l/m 0 min 0 min 0 W/m 0,0 km/h (0 Bft) 97,87 %
22.10.2020 23:40 13,8 C 12,8 C 11,7 C 97 % 1012,8 hPa 0,0 l/m 0 min 0 min 0 W/m 0,0 km/h (0 Bft) 97,87 %
22.10.2020 23:42 13,8 C 12,8 C 11,7 C 97 % 1012,8 hPa 0,0 l/m 0 min 0 min 0 W/m 0,0 km/h (0 Bft) 97,87 %
22.10.2020 23:44 13,8 C 12,8 C 12,2 C 97 % 1012,8 hPa 0,0 l/m 0 min 0 min 0 W/m 0,0 km/h (0 Bft) 97,87 %
22.10.2020 23:46 13,8 C 12,8 C 12,2 C 97 % 1012,8 hPa 0,0 l/m 0 min 0 min 0 W/m 0,0 km/h (0 Bft) 97,92 %
22.10.2020 23:48 13,8 C 12,8 C 12,2 C 97 % 1012,8 hPa 0,0 l/m 0 min 0 min 0 W/m 0,0 km/h (0 Bft) 97,92 %
22.10.2020 23:50 13,9 C 12,8 C 12,2 C 97 % 1012,8 hPa 0,0 l/m 0 min 0 min 0 W/m 0,0 km/h (0 Bft) 97,92 %
22.10.2020 23:52 13,9 C 13,3 C 12,2 C 97 % 1012,8 hPa 0,0 l/m 0 min 0 min 0 W/m 0,0 km/h (0 Bft) 97,92 %
22.10.2020 23:54 13,9 C 13,3 C 12,2 C 97 % 1012,8 hPa 0,0 l/m 0 min 0 min 0 W/m 0,0 km/h (0 Bft) 100,00 %
22.10.2020 23:56 13,9 C 13,3 C 12,2 C 97 % 1012,8 hPa 0,0 l/m 0 min 0 min 0 W/m 0,0 km/h (0 Bft) 97,87 %
22.10.2020 23:58 13,9 C 12,8 C 12,2 C 97 % 1012,7 hPa 0,0 l/m 0 min 0 min 0 W/m 0,0 km/h (0 Bft) 100,00 %
_ Min-Zeit 06:14 04:40 05:24 16:44 00:00 - - - - 00:36 00:32
Minimum _ 13,8 C 12,8 C 10,6 C 77 % 1007,7 hPa - - - - 0,0 km/h (0 Bft) 89,36 %
_ Max-Zeit 16:38 15:30 16:02 22:30 23:00 18:02 09:56 18:08 15:32 00:10 01:20
Maximum _ 19,8 C 21,7 C 17,8 C 97 % 1012,8 hPa 0,2 l/m 2 min 4 min 427 W/m 32,2 km/h
S (5 Bft)
100,00 %
Durchschnitt _ 16,3 C 15,5 C 13,9 C 88 % 1011,2 hPa #0,2 l/m #1:20 h #41 min. 109 W/m 5,9 km/h (2 Bft) 97,49 %
© 2020 W. Hausmann